Wetterdaten: Freitag, 03.11.2023
Datum Zeit Temp. Aussen Temp. o. S. Temp +5cm Feuchte Auss Luftdruck Regen Sonnenschein Regendauer Solar Windben Empfang
03.11.2023 00:00 9,9 C 8,9 C 4,4 C 85 % 980,7 hPa 0,0 l/m 0 min 2 min 0 W/m 35,4 km/h (5 Bft) 97,37 %
03.11.2023 00:05 9,8 C 8,9 C 4,4 C 85 % 980,8 hPa 0,0 l/m 0 min 5 min 0 W/m 35,4 km/h (5 Bft) 97,37 %
03.11.2023 00:10 9,7 C 8,9 C 4,4 C 86 % 980,9 hPa 0,0 l/m 0 min 5 min 0 W/m 35,4 km/h (5 Bft) 98,25 %
03.11.2023 00:15 9,6 C 8,3 C 4,4 C 87 % 980,9 hPa 0,2 l/m 0 min 5 min 0 W/m 32,2 km/h (5 Bft) 98,25 %
03.11.2023 00:20 9,5 C 8,3 C 4,4 C 88 % 980,9 hPa 0,0 l/m 0 min 5 min 0 W/m 19,3 km/h (3 Bft) 100,00 %
03.11.2023 00:25 9,3 C 8,3 C 4,4 C 89 % 980,9 hPa 0,0 l/m 0 min 5 min 0 W/m 35,4 km/h (5 Bft) 100,00 %
03.11.2023 00:30 9,2 C 8,3 C 3,9 C 89 % 980,9 hPa 0,0 l/m 0 min 5 min 0 W/m 25,7 km/h (4 Bft) 98,25 %
03.11.2023 00:35 9,1 C 8,3 C 3,9 C 89 % 980,8 hPa 0,0 l/m 0 min 0 min 0 W/m 25,7 km/h (4 Bft) 98,25 %
03.11.2023 00:40 9,1 C 8,3 C 3,9 C 89 % 980,7 hPa 0,0 l/m 0 min 0 min 0 W/m 32,2 km/h (5 Bft) 98,25 %
03.11.2023 00:45 9,1 C 8,3 C 3,9 C 89 % 980,7 hPa 0,0 l/m 0 min 0 min 0 W/m 29,0 km/h (5 Bft) 98,25 %
03.11.2023 00:50 9,1 C 8,3 C 3,9 C 89 % 980,8 hPa 0,0 l/m 0 min 0 min 0 W/m 38,6 km/h (5 Bft) 98,25 %
03.11.2023 00:55 9,2 C 8,3 C 3,9 C 88 % 981,0 hPa 0,0 l/m 0 min 0 min 0 W/m 35,4 km/h (5 Bft) 100,00 %
03.11.2023 01:00 9,2 C 8,3 C 3,9 C 88 % 980,9 hPa 0,0 l/m 0 min 0 min 0 W/m 41,8 km/h (6 Bft) 98,25 %
03.11.2023 01:05 9,2 C 8,9 C 4,4 C 87 % 980,8 hPa 0,0 l/m 0 min 0 min 0 W/m 35,4 km/h (5 Bft) 99,12 %
03.11.2023 01:10 9,3 C 8,9 C 4,4 C 87 % 980,9 hPa 0,0 l/m 0 min 0 min 0 W/m 32,2 km/h (5 Bft) 100,00 %
03.11.2023 01:15 9,4 C 8,9 C 4,4 C 86 % 980,9 hPa 0,0 l/m 0 min 0 min 0 W/m 38,6 km/h (5 Bft) 99,12 %
03.11.2023 01:20 9,4 C 8,9 C 4,4 C 86 % 981,0 hPa 0,0 l/m 0 min 0 min 0 W/m 38,6 km/h (5 Bft) 100,00 %
03.11.2023 01:25 9,6 C 8,9 C 4,4 C 85 % 981,1 hPa 0,0 l/m 0 min 0 min 0 W/m 45,1 km/h (6 Bft) 100,00 %
03.11.2023 01:30 9,6 C 8,9 C 4,4 C 85 % 980,9 hPa 0,0 l/m 0 min 0 min 0 W/m 45,1 km/h (6 Bft) 99,12 %
03.11.2023 01:35 9,6 C 8,9 C 5,0 C 84 % 981,0 hPa 0,0 l/m 0 min 0 min 0 W/m 48,3 km/h (6 Bft) 100,00 %
03.11.2023 01:40 9,7 C 8,9 C 5,0 C 84 % 981,2 hPa 0,0 l/m 0 min 0 min 0 W/m 48,3 km/h (6 Bft) 99,12 %
03.11.2023 01:45 9,7 C 8,9 C 5,0 C 84 % 981,3 hPa 0,0 l/m 0 min 0 min 0 W/m 38,6 km/h (5 Bft) 100,00 %
03.11.2023 01:50 9,7 C 8,9 C 5,6 C 84 % 981,2 hPa 0,0 l/m 0 min 0 min 0 W/m 41,8 km/h (6 Bft) 98,25 %
03.11.2023 01:55 9,7 C 8,9 C 5,6 C 83 % 981,3 hPa 0,0 l/m 0 min 0 min 0 W/m 45,1 km/h (6 Bft) 100,00 %
03.11.2023 02:00 9,7 C 8,9 C 5,6 C 83 % 981,4 hPa 0,0 l/m 0 min 0 min 0 W/m 45,1 km/h (6 Bft) 100,00 %
03.11.2023 02:05 9,7 C 8,9 C 5,6 C 83 % 981,5 hPa 0,0 l/m 0 min 0 min 0 W/m 35,4 km/h (5 Bft) 100,00 %
03.11.2023 02:10 9,7 C 8,9 C 5,6 C 83 % 981,6 hPa 0,0 l/m 0 min 0 min 0 W/m 45,1 km/h (6 Bft) 100,00 %
03.11.2023 02:15 9,7 C 8,9 C 5,6 C 83 % 981,6 hPa 0,0 l/m 0 min 0 min 0 W/m 45,1 km/h (6 Bft) 100,00 %
03.11.2023 02:20 9,7 C 8,9 C 5,6 C 83 % 981,5 hPa 0,0 l/m 0 min 0 min 0 W/m 35,4 km/h (5 Bft) 100,00 %
03.11.2023 02:25 9,7 C 8,9 C 5,6 C 83 % 981,6 hPa 0,0 l/m 0 min 0 min 0 W/m 48,3 km/h (6 Bft) 100,00 %
03.11.2023 02:30 9,7 C 8,9 C 5,6 C 83 % 981,6 hPa 0,0 l/m 0 min 0 min 0 W/m 38,6 km/h (5 Bft) 100,00 %
03.11.2023 02:35 9,7 C 8,9 C 5,6 C 82 % 981,4 hPa 0,0 l/m 0 min 0 min 0 W/m 38,6 km/h (5 Bft) 100,00 %
03.11.2023 02:40 9,7 C 8,9 C 5,6 C 82 % 981,5 hPa 0,0 l/m 0 min 0 min 0 W/m 25,7 km/h (4 Bft) 81,58 %
03.11.2023 02:45 9,7 C 8,9 C 5,6 C 82 % 981,6 hPa 0,0 l/m 0 min 0 min 0 W/m 41,8 km/h (6 Bft) 100,00 %
03.11.2023 02:50 9,7 C 8,9 C 5,6 C 82 % 981,6 hPa 0,0 l/m 0 min 0 min 0 W/m 41,8 km/h (6 Bft) 100,00 %
03.11.2023 02:55 9,7 C 8,9 C 5,6 C 82 % 981,7 hPa 0,0 l/m 0 min 0 min 0 W/m 48,3 km/h (6 Bft) 100,00 %
03.11.2023 03:00 9,8 C 8,9 C 5,6 C 82 % 981,8 hPa 0,0 l/m 0 min 0 min 0 W/m 41,8 km/h (6 Bft) 100,00 %
03.11.2023 03:05 9,8 C 8,9 C 5,6 C 82 % 982,0 hPa 0,0 l/m 0 min 0 min 0 W/m 35,4 km/h (5 Bft) 100,00 %
03.11.2023 03:10 9,7 C 8,9 C 5,6 C 82 % 981,9 hPa 0,0 l/m 0 min 0 min 0 W/m 35,4 km/h (5 Bft) 99,12 %
03.11.2023 03:15 9,7 C 8,9 C 5,6 C 82 % 981,7 hPa 0,0 l/m 0 min 0 min 0 W/m 32,2 km/h (5 Bft) 94,74 %
03.11.2023 03:20 9,8 C 8,9 C 5,6 C 81 % 981,9 hPa 0,0 l/m 0 min 0 min 0 W/m 54,7 km/h (7 Bft) 96,49 %
03.11.2023 03:25 9,8 C 8,9 C 5,6 C 81 % 981,9 hPa 0,0 l/m 0 min 0 min 0 W/m 54,7 km/h (7 Bft) 94,74 %
03.11.2023 03:30 9,8 C 8,9 C 5,6 C 81 % 982,0 hPa 0,0 l/m 0 min 0 min 0 W/m 61,2 km/h (7 Bft) 95,61 %
03.11.2023 03:35 9,7 C 8,9 C 5,6 C 81 % 982,3 hPa 0,0 l/m 0 min 0 min 0 W/m 38,6 km/h (5 Bft) 96,49 %
03.11.2023 03:40 9,7 C 8,9 C 5,6 C 81 % 982,1 hPa 0,0 l/m 0 min 0 min 0 W/m 29,0 km/h (5 Bft) 94,74 %
03.11.2023 03:45 9,7 C 8,9 C 5,6 C 82 % 982,1 hPa 0,0 l/m 0 min 0 min 0 W/m 48,3 km/h (6 Bft) 98,25 %
03.11.2023 03:50 9,7 C 8,9 C 5,6 C 82 % 982,2 hPa 0,0 l/m 0 min 0 min 0 W/m 38,6 km/h (5 Bft) 99,12 %
03.11.2023 03:55 9,7 C 8,9 C 5,6 C 82 % 982,2 hPa 0,0 l/m 0 min 0 min 0 W/m 29,0 km/h (5 Bft) 99,12 %
03.11.2023 04:00 9,7 C 8,9 C 5,6 C 82 % 982,2 hPa 0,0 l/m 0 min 0 min 0 W/m 35,4 km/h (5 Bft) 100,00 %
03.11.2023 04:05 9,7 C 8,9 C 5,6 C 82 % 982,2 hPa 0,0 l/m 0 min 0 min 0 W/m 25,7 km/h (4 Bft) 85,96 %
03.11.2023 04:10 9,7 C 8,9 C 5,6 C 82 % 982,2 hPa 0,0 l/m 0 min 0 min 0 W/m 35,4 km/h (5 Bft) 100,00 %
03.11.2023 04:15 9,7 C 8,9 C 5,6 C 82 % 982,2 hPa 0,0 l/m 0 min 0 min 0 W/m 48,3 km/h (6 Bft) 100,00 %
03.11.2023 04:20 9,7 C 8,9 C 5,6 C 82 % 982,2 hPa 0,0 l/m 0 min 0 min 0 W/m 32,2 km/h (5 Bft) 100,00 %
03.11.2023 04:25 9,7 C 8,9 C 5,6 C 81 % 982,1 hPa 0,0 l/m 0 min 0 min 0 W/m 35,4 km/h (5 Bft) 100,00 %
03.11.2023 04:30 9,7 C 8,9 C 5,6 C 82 % 982,2 hPa 0,0 l/m 0 min 0 min 0 W/m 29,0 km/h (5 Bft) 100,00 %
03.11.2023 04:35 9,6 C 8,9 C 5,6 C 82 % 982,2 hPa 0,0 l/m 0 min 0 min 0 W/m 25,7 km/h (4 Bft) 100,00 %
03.11.2023 04:40 9,6 C 8,9 C 5,6 C 82 % 982,2 hPa 0,0 l/m 0 min 0 min 0 W/m 35,4 km/h (5 Bft) 100,00 %
03.11.2023 04:45 9,5 C 8,9 C 5,0 C 82 % 982,2 hPa 0,0 l/m 0 min 0 min 0 W/m 35,4 km/h (5 Bft) 100,00 %
03.11.2023 04:50 9,5 C 8,9 C 5,6 C 82 % 982,3 hPa 0,0 l/m 0 min 0 min 0 W/m 35,4 km/h (5 Bft) 100,00 %
03.11.2023 04:55 9,5 C 8,9 C 5,6 C 82 % 982,2 hPa 0,0 l/m 0 min 0 min 0 W/m 32,2 km/h (5 Bft) 100,00 %
03.11.2023 05:00 9,5 C 8,9 C 5,0 C 82 % 982,3 hPa 0,0 l/m 0 min 0 min 0 W/m 38,6 km/h (5 Bft) 100,00 %
03.11.2023 05:05 9,4 C 8,9 C 5,0 C 82 % 982,5 hPa 0,0 l/m 0 min 0 min 0 W/m 45,1 km/h (6 Bft) 100,00 %
03.11.2023 05:10 9,4 C 8,9 C 5,0 C 83 % 982,3 hPa 0,0 l/m 0 min 0 min 0 W/m 48,3 km/h (6 Bft) 99,12 %
03.11.2023 05:15 9,4 C 8,3 C 5,0 C 83 % 982,3 hPa 0,0 l/m 0 min 0 min 0 W/m 25,7 km/h (4 Bft) 100,00 %
03.11.2023 05:20 9,4 C 8,3 C 5,0 C 83 % 982,4 hPa 0,0 l/m 0 min 0 min 0 W/m 35,4 km/h (5 Bft) 100,00 %
03.11.2023 05:25 9,4 C 8,3 C 5,0 C 83 % 982,4 hPa 0,0 l/m 0 min 0 min 0 W/m 48,3 km/h (6 Bft) 100,00 %
03.11.2023 05:30 9,4 C 8,9 C 5,0 C 83 % 982,5 hPa 0,0 l/m 0 min 0 min 0 W/m 32,2 km/h (5 Bft) 98,25 %
03.11.2023 05:35 9,4 C 8,9 C 5,0 C 83 % 982,5 hPa 0,0 l/m 0 min 0 min 0 W/m 32,2 km/h (5 Bft) 98,25 %
03.11.2023 05:40 9,4 C 8,9 C 5,0 C 83 % 982,6 hPa 0,0 l/m 0 min 0 min 0 W/m 29,0 km/h (5 Bft) 100,00 %
03.11.2023 05:45 9,4 C 8,3 C 5,0 C 83 % 982,6 hPa 0,0 l/m 0 min 0 min 0 W/m 29,0 km/h (5 Bft) 99,12 %
03.11.2023 05:50 9,3 C 8,3 C 5,0 C 83 % 982,7 hPa 0,0 l/m 0 min 0 min 0 W/m 32,2 km/h (5 Bft) 100,00 %
03.11.2023 05:55 9,4 C 8,3 C 5,0 C 84 % 982,8 hPa 0,0 l/m 0 min 0 min 0 W/m 35,4 km/h (5 Bft) 100,00 %
03.11.2023 06:00 9,3 C 8,3 C 5,0 C 84 % 982,7 hPa 0,0 l/m 0 min 0 min 0 W/m 32,2 km/h (5 Bft) 100,00 %
03.11.2023 06:05 9,3 C 8,3 C 5,0 C 84 % 982,7 hPa 0,0 l/m 0 min 0 min 0 W/m 25,7 km/h (4 Bft) 100,00 %
03.11.2023 06:10 9,2 C 8,3 C 5,0 C 84 % 982,8 hPa 0,0 l/m 0 min 0 min 0 W/m 29,0 km/h (5 Bft) 98,25 %
03.11.2023 06:15 9,2 C 8,3 C 5,0 C 84 % 982,8 hPa 0,0 l/m 0 min 0 min 0 W/m 25,7 km/h (4 Bft) 97,37 %
03.11.2023 06:20 9,2 C 8,3 C 5,0 C 84 % 983,0 hPa 0,0 l/m 0 min 0 min 0 W/m 38,6 km/h (5 Bft) 98,25 %
03.11.2023 06:25 9,1 C 8,3 C 5,0 C 84 % 983,0 hPa 0,0 l/m 0 min 0 min 0 W/m 25,7 km/h (4 Bft) 100,00 %
03.11.2023 06:30 9,2 C 8,3 C 5,0 C 84 % 983,0 hPa 0,0 l/m 0 min 0 min 0 W/m 32,2 km/h (5 Bft) 99,12 %
03.11.2023 06:35 9,1 C 8,3 C 5,0 C 84 % 983,0 hPa 0,0 l/m 0 min 0 min 0 W/m 25,7 km/h (4 Bft) 99,12 %
03.11.2023 06:40 9,1 C 8,3 C 5,0 C 84 % 983,2 hPa 0,0 l/m 0 min 0 min 0 W/m 29,0 km/h (5 Bft) 100,00 %
03.11.2023 06:45 9,1 C 8,3 C 5,0 C 84 % 983,1 hPa 0,0 l/m 0 min 0 min 0 W/m 25,7 km/h (4 Bft) 99,12 %
03.11.2023 06:50 9,1 C 8,3 C 5,0 C 84 % 983,2 hPa 0,0 l/m 0 min 0 min 0 W/m 25,7 km/h (4 Bft) 97,37 %
03.11.2023 06:55 9,1 C 8,3 C 5,0 C 84 % 983,2 hPa 0,0 l/m 0 min 0 min 0 W/m 25,7 km/h (4 Bft) 83,33 %
03.11.2023 07:00 9,2 C 8,3 C 5,0 C 84 % 983,3 hPa 0,0 l/m 0 min 0 min 0 W/m 22,5 km/h (4 Bft) 96,49 %
03.11.2023 07:05 9,2 C 8,3 C 5,0 C 84 % 983,4 hPa 0,0 l/m 0 min 0 min 0 W/m 25,7 km/h (4 Bft) 96,49 %
03.11.2023 07:10 9,2 C 8,3 C 5,0 C 84 % 983,5 hPa 0,0 l/m 0 min 0 min 0 W/m 38,6 km/h (5 Bft) 100,00 %
03.11.2023 07:15 9,2 C 8,3 C 5,0 C 84 % 983,5 hPa 0,0 l/m 0 min 0 min 0 W/m 25,7 km/h (4 Bft) 97,37 %
03.11.2023 07:20 9,2 C 8,3 C 5,0 C 84 % 983,6 hPa 0,0 l/m 0 min 0 min 0 W/m 25,7 km/h (4 Bft) 100,00 %
03.11.2023 07:25 9,2 C 8,3 C 5,0 C 84 % 983,6 hPa 0,0 l/m 0 min 0 min 0 W/m 45,1 km/h (6 Bft) 99,12 %
03.11.2023 07:30 9,2 C 8,3 C 5,0 C 84 % 983,7 hPa 0,0 l/m 0 min 0 min 0 W/m 29,0 km/h (5 Bft) 100,00 %
03.11.2023 07:35 9,2 C 8,3 C 5,0 C 84 % 983,8 hPa 0,0 l/m 0 min 0 min 2 W/m 38,6 km/h (5 Bft) 100,00 %
03.11.2023 07:40 9,2 C 8,3 C 5,0 C 84 % 983,8 hPa 0,0 l/m 0 min 0 min 9 W/m 38,6 km/h (5 Bft) 100,00 %
03.11.2023 07:45 9,2 C 8,3 C 5,0 C 84 % 983,9 hPa 0,0 l/m 0 min 0 min 16 W/m 22,5 km/h (4 Bft) 100,00 %
03.11.2023 07:50 9,2 C 8,3 C 5,0 C 84 % 984,0 hPa 0,0 l/m 5 min 0 min 22 W/m 29,0 km/h (5 Bft) 100,00 %
03.11.2023 07:55 9,2 C 8,3 C 5,0 C 84 % 984,0 hPa 0,0 l/m 5 min 0 min 30 W/m 32,2 km/h (5 Bft) 100,00 %
03.11.2023 08:00 9,2 C 8,9 C 5,0 C 84 % 984,1 hPa 0,0 l/m 5 min 0 min 35 W/m 22,5 km/h (4 Bft) 100,00 %
03.11.2023 08:05 9,3 C 8,9 C 5,6 C 84 % 984,1 hPa 0,0 l/m 5 min 0 min 36 W/m 25,7 km/h (4 Bft) 100,00 %
03.11.2023 08:10 9,3 C 8,9 C 5,6 C 83 % 984,1 hPa 0,0 l/m 5 min 0 min 46 W/m 38,6 km/h (5 Bft) 100,00 %
03.11.2023 08:15 9,3 C 8,9 C 5,6 C 83 % 984,2 hPa 0,0 l/m 5 min 0 min 63 W/m 22,5 km/h (4 Bft) 100,00 %
03.11.2023 08:20 9,4 C 8,9 C 5,6 C 83 % 984,1 hPa 0,0 l/m 5 min 0 min 75 W/m 25,7 km/h (4 Bft) 100,00 %
03.11.2023 08:25 9,6 C 9,4 C 5,6 C 83 % 984,1 hPa 0,0 l/m 5 min 0 min 85 W/m 41,8 km/h (6 Bft) 100,00 %
03.11.2023 08:30 9,6 C 9,4 C 5,6 C 83 % 984,0 hPa 0,0 l/m 5 min 0 min 95 W/m 22,5 km/h (4 Bft) 100,00 %
03.11.2023 08:35 9,7 C 9,4 C 5,6 C 83 % 984,1 hPa 0,0 l/m 5 min 0 min 102 W/m 32,2 km/h (5 Bft) 100,00 %
03.11.2023 08:40 9,7 C 9,4 C 5,6 C 83 % 984,2 hPa 0,0 l/m 5 min 0 min 107 W/m 32,2 km/h (5 Bft) 99,12 %
03.11.2023 08:45 9,8 C 9,4 C 5,6 C 83 % 984,2 hPa 0,0 l/m 5 min 0 min 112 W/m 25,7 km/h (4 Bft) 100,00 %
03.11.2023 08:50 9,8 C 9,4 C 6,1 C 82 % 984,2 hPa 0,0 l/m 5 min 0 min 120 W/m 25,7 km/h (4 Bft) 100,00 %
03.11.2023 08:55 9,9 C 10,0 C 6,1 C 82 % 984,2 hPa 0,0 l/m 5 min 0 min 115 W/m 22,5 km/h (4 Bft) 100,00 %
03.11.2023 09:00 10,0 C 10,0 C 6,1 C 82 % 984,3 hPa 0,0 l/m 5 min 0 min 116 W/m 29,0 km/h (5 Bft) 96,77 %
03.11.2023 09:02 10,1 C 10,0 C 6,1 C 82 % 984,2 hPa 0,0 l/m 2 min 0 min 114 W/m 22,5 km/h (4 Bft) 98,00 %
03.11.2023 09:04 10,1 C 10,0 C 6,1 C 82 % 984,2 hPa 0,0 l/m 2 min 0 min 116 W/m 16,1 km/h (3 Bft) 95,74 %
03.11.2023 09:06 10,1 C 10,0 C 6,1 C 82 % 984,2 hPa 0,0 l/m 2 min 0 min 115 W/m 22,5 km/h (4 Bft) 95,74 %
03.11.2023 09:08 10,1 C 10,0 C 6,1 C 82 % 984,1 hPa 0,0 l/m 2 min 0 min 118 W/m 16,1 km/h (3 Bft) 91,67 %
03.11.2023 09:10 10,1 C 10,0 C 6,1 C 82 % 984,2 hPa 0,0 l/m 2 min 0 min 116 W/m 22,5 km/h (4 Bft) 95,74 %
03.11.2023 09:12 10,2 C 10,0 C 6,1 C 82 % 984,1 hPa 0,0 l/m 2 min 0 min 112 W/m 25,7 km/h (4 Bft) 95,74 %
03.11.2023 09:14 10,2 C 10,0 C 6,1 C 81 % 984,1 hPa 0,0 l/m 0 min 0 min 105 W/m 22,5 km/h (4 Bft) 93,48 %
03.11.2023 09:16 10,3 C 10,0 C 6,1 C 81 % 984,1 hPa 0,0 l/m 0 min 0 min 96 W/m 22,5 km/h (4 Bft) 93,62 %
03.11.2023 09:18 10,3 C 10,0 C 6,1 C 81 % 984,2 hPa 0,0 l/m 0 min 0 min 92 W/m 25,7 km/h (4 Bft) 95,74 %
03.11.2023 09:20 10,3 C 10,0 C 6,1 C 81 % 984,2 hPa 0,0 l/m 0 min 0 min 90 W/m 22,5 km/h (4 Bft) 93,62 %
03.11.2023 09:22 10,3 C 10,0 C 6,1 C 81 % 984,3 hPa 0,0 l/m 0 min 0 min 82 W/m 12,9 km/h (3 Bft) 93,62 %
03.11.2023 09:24 10,4 C 10,0 C 6,1 C 81 % 984,4 hPa 0,0 l/m 0 min 0 min 84 W/m 29,0 km/h (5 Bft) 93,62 %
03.11.2023 09:26 10,4 C 10,0 C 6,1 C 81 % 984,4 hPa 0,0 l/m 2 min 0 min 122 W/m 22,5 km/h (4 Bft) 97,87 %
03.11.2023 09:28 10,4 C 10,0 C 6,1 C 81 % 984,5 hPa 0,0 l/m 2 min 0 min 165 W/m 16,1 km/h (3 Bft) 97,87 %
03.11.2023 09:30 10,4 C 10,0 C 6,1 C 81 % 984,6 hPa 0,0 l/m 2 min 0 min 143 W/m 19,3 km/h (3 Bft) 97,87 %
03.11.2023 09:32 10,4 C 10,0 C 6,1 C 81 % 984,5 hPa 0,0 l/m 2 min 0 min 134 W/m 25,7 km/h (4 Bft) 97,83 %
03.11.2023 09:34 10,4 C 10,0 C 6,1 C 81 % 984,6 hPa 0,0 l/m 2 min 0 min 181 W/m 16,1 km/h (3 Bft) 97,87 %
03.11.2023 09:36 10,4 C 10,0 C 6,1 C 81 % 984,7 hPa 0,0 l/m 0 min 0 min 125 W/m 25,7 km/h (4 Bft) 97,87 %
03.11.2023 09:38 10,4 C 10,0 C 6,1 C 81 % 984,8 hPa 0,0 l/m 0 min 0 min 81 W/m 19,3 km/h (3 Bft) 97,87 %
03.11.2023 09:40 10,4 C 10,0 C 6,1 C 81 % 984,8 hPa 0,0 l/m 0 min 0 min 77 W/m 38,6 km/h (5 Bft) 97,87 %
03.11.2023 09:42 10,4 C 10,0 C 6,1 C 81 % 984,9 hPa 0,0 l/m 0 min 0 min 66 W/m 25,7 km/h (4 Bft) 93,62 %
03.11.2023 09:44 10,3 C 10,0 C 6,1 C 81 % 984,9 hPa 0,0 l/m 0 min 0 min 60 W/m 25,7 km/h (4 Bft) 97,87 %
03.11.2023 09:46 10,3 C 10,0 C 6,1 C 81 % 985,0 hPa 0,0 l/m 0 min 0 min 63 W/m 29,0 km/h (5 Bft) 98,15 %
03.11.2023 09:48 10,3 C 10,0 C 6,1 C 81 % 985,1 hPa 0,0 l/m 0 min 0 min 63 W/m 22,5 km/h (4 Bft) 97,96 %
03.11.2023 09:50 10,3 C 10,0 C 6,1 C 82 % 985,1 hPa 0,0 l/m 0 min 0 min 61 W/m 22,5 km/h (4 Bft) 97,87 %
03.11.2023 09:52 10,2 C 9,4 C 6,1 C 82 % 985,2 hPa 0,0 l/m 0 min 0 min 65 W/m 29,0 km/h (5 Bft) 100,00 %
03.11.2023 09:54 10,2 C 9,4 C 6,1 C 82 % 985,2 hPa 0,0 l/m 0 min 0 min 69 W/m 25,7 km/h (4 Bft) 97,87 %
03.11.2023 09:56 10,2 C 9,4 C 6,1 C 82 % 985,3 hPa 0,0 l/m 0 min 0 min 76 W/m 29,0 km/h (5 Bft) 97,87 %
03.11.2023 09:58 10,2 C 10,0 C 6,1 C 82 % 985,3 hPa 0,0 l/m 0 min 0 min 83 W/m 25,7 km/h (4 Bft) 100,00 %
03.11.2023 10:00 10,2 C 10,0 C 6,1 C 82 % 985,3 hPa 0,0 l/m 0 min 0 min 99 W/m 16,1 km/h (3 Bft) 100,00 %
03.11.2023 10:02 10,2 C 10,0 C 6,1 C 82 % 985,4 hPa 0,0 l/m 0 min 0 min 113 W/m 35,4 km/h (5 Bft) 97,56 %
03.11.2023 10:04 10,2 C 10,0 C 6,1 C 82 % 985,4 hPa 0,0 l/m 0 min 0 min 119 W/m 29,0 km/h (5 Bft) 100,00 %
03.11.2023 10:06 10,2 C 10,0 C 6,1 C 82 % 985,4 hPa 0,0 l/m 0 min 0 min 126 W/m 29,0 km/h (5 Bft) 97,87 %
03.11.2023 10:08 10,3 C 10,0 C 6,1 C 82 % 985,5 hPa 0,0 l/m 0 min 0 min 110 W/m 25,7 km/h (4 Bft) 97,83 %
03.11.2023 10:10 10,3 C 10,0 C 6,7 C 82 % 985,5 hPa 0,0 l/m 0 min 0 min 109 W/m 19,3 km/h (3 Bft) 97,87 %
03.11.2023 10:12 10,4 C 10,0 C 6,7 C 82 % 985,6 hPa 0,0 l/m 0 min 0 min 101 W/m 22,5 km/h (4 Bft) 100,00 %
03.11.2023 10:14 10,4 C 10,0 C 6,7 C 82 % 985,6 hPa 0,0 l/m 0 min 0 min 104 W/m 22,5 km/h (4 Bft) 97,87 %
03.11.2023 10:16 10,4 C 10,6 C 6,7 C 82 % 985,6 hPa 0,0 l/m 0 min 0 min 102 W/m 22,5 km/h (4 Bft) 100,00 %
03.11.2023 10:18 10,5 C 10,6 C 6,7 C 82 % 985,7 hPa 0,0 l/m 0 min 0 min 111 W/m 12,9 km/h (3 Bft) 100,00 %
03.11.2023 10:20 10,6 C 10,6 C 6,7 C 82 % 985,7 hPa 0,0 l/m 0 min 0 min 106 W/m 12,9 km/h (3 Bft) 100,00 %
03.11.2023 10:22 10,6 C 10,6 C 6,7 C 82 % 985,7 hPa 0,0 l/m 0 min 0 min 129 W/m 16,1 km/h (3 Bft) 100,00 %
03.11.2023 10:24 10,6 C 10,6 C 6,7 C 82 % 985,7 hPa 0,0 l/m 0 min 0 min 120 W/m 22,5 km/h (4 Bft) 97,87 %
03.11.2023 10:26 10,7 C 10,6 C 6,7 C 82 % 985,8 hPa 0,0 l/m 0 min 0 min 121 W/m 16,1 km/h (3 Bft) 100,00 %
03.11.2023 10:28 10,7 C 10,6 C 6,7 C 82 % 985,9 hPa 0,0 l/m 0 min 0 min 125 W/m 25,7 km/h (4 Bft) 100,00 %
03.11.2023 10:30 10,7 C 10,6 C 6,7 C 82 % 985,9 hPa 0,0 l/m 0 min 0 min 118 W/m 25,7 km/h (4 Bft) 100,00 %
03.11.2023 10:32 10,7 C 10,6 C 6,7 C 82 % 986,0 hPa 0,0 l/m 0 min 0 min 114 W/m 22,5 km/h (4 Bft) 100,00 %
03.11.2023 10:34 10,8 C 10,6 C 6,7 C 81 % 986,0 hPa 0,0 l/m 0 min 0 min 110 W/m 22,5 km/h (4 Bft) 100,00 %
03.11.2023 10:36 10,8 C 10,6 C 6,7 C 81 % 986,0 hPa 0,0 l/m 0 min 0 min 94 W/m 25,7 km/h (4 Bft) 97,87 %
03.11.2023 10:38 10,8 C 10,6 C 6,7 C 81 % 986,2 hPa 0,0 l/m 0 min 0 min 89 W/m 32,2 km/h (5 Bft) 95,74 %
03.11.2023 10:40 10,8 C 10,6 C 6,7 C 81 % 986,1 hPa 0,0 l/m 0 min 0 min 100 W/m 32,2 km/h (5 Bft) 100,00 %
03.11.2023 10:42 10,8 C 10,6 C 6,7 C 81 % 986,2 hPa 0,0 l/m 0 min 0 min 87 W/m 32,2 km/h (5 Bft) 100,00 %
03.11.2023 10:44 10,8 C 10,6 C 6,7 C 81 % 986,3 hPa 0,0 l/m 0 min 0 min 75 W/m 19,3 km/h (3 Bft) 97,87 %
03.11.2023 10:46 10,8 C 10,6 C 6,7 C 81 % 986,3 hPa 0,0 l/m 0 min 0 min 101 W/m 22,5 km/h (4 Bft) 100,00 %
03.11.2023 10:48 10,8 C 10,6 C 6,7 C 81 % 986,3 hPa 0,0 l/m 0 min 0 min 126 W/m 12,9 km/h (3 Bft) 97,87 %
03.11.2023 10:50 10,8 C 10,6 C 6,7 C 81 % 986,3 hPa 0,0 l/m 0 min 0 min 115 W/m 22,5 km/h (4 Bft) 100,00 %
03.11.2023 10:52 10,9 C 10,6 C 6,7 C 81 % 986,2 hPa 0,0 l/m 0 min 0 min 108 W/m 16,1 km/h (3 Bft) 100,00 %
03.11.2023 10:54 10,9 C 10,6 C 6,7 C 81 % 986,4 hPa 0,0 l/m 0 min 0 min 78 W/m 22,5 km/h (4 Bft) 95,83 %
03.11.2023 10:56 10,9 C 10,6 C 6,7 C 81 % 986,3 hPa 0,0 l/m 0 min 0 min 86 W/m 19,3 km/h (3 Bft) 93,62 %
03.11.2023 10:58 10,9 C 10,6 C 6,7 C 81 % 986,4 hPa 0,0 l/m 0 min 0 min 108 W/m 16,1 km/h (3 Bft) 95,74 %
03.11.2023 11:00 10,9 C 10,6 C 6,7 C 81 % 986,3 hPa 0,0 l/m 0 min 0 min 122 W/m 29,0 km/h (5 Bft) 95,74 %
03.11.2023 11:02 10,9 C 10,6 C 6,7 C 81 % 986,4 hPa 0,0 l/m 0 min 0 min 139 W/m 19,3 km/h (3 Bft) 93,48 %
03.11.2023 11:04 10,9 C 10,6 C 6,7 C 81 % 986,4 hPa 0,0 l/m 0 min 0 min 109 W/m 19,3 km/h (3 Bft) 93,18 %
03.11.2023 11:08 10,9 C 10,6 C 6,7 C 81 % 986,5 hPa 0,0 l/m 0 min 0 min 91 W/m 25,7 km/h (4 Bft) 94,06 %
03.11.2023 11:10 10,9 C 10,6 C 6,7 C 81 % 986,5 hPa 0,0 l/m 0 min 0 min 106 W/m 29,0 km/h (5 Bft) 93,62 %
03.11.2023 11:12 10,9 C 10,6 C 6,7 C 81 % 986,5 hPa 0,0 l/m 0 min 0 min 134 W/m 29,0 km/h (5 Bft) 95,74 %
03.11.2023 11:14 10,9 C 10,6 C 6,7 C 80 % 986,5 hPa 0,0 l/m 0 min 0 min 111 W/m 35,4 km/h (5 Bft) 95,74 %
03.11.2023 11:16 10,9 C 10,6 C 6,7 C 80 % 986,6 hPa 0,0 l/m 0 min 0 min 101 W/m 38,6 km/h (5 Bft) 93,62 %
03.11.2023 11:18 10,9 C 10,6 C 6,7 C 80 % 986,6 hPa 0,0 l/m 0 min 0 min 87 W/m 25,7 km/h (4 Bft) 93,48 %
03.11.2023 11:20 10,9 C 10,6 C 6,7 C 80 % 986,7 hPa 0,0 l/m 0 min 0 min 94 W/m 19,3 km/h (3 Bft) 93,62 %
03.11.2023 11:22 10,9 C 10,6 C 7,2 C 80 % 986,7 hPa 0,0 l/m 0 min 0 min 121 W/m 45,1 km/h (6 Bft) 95,74 %
03.11.2023 11:24 10,9 C 10,6 C 7,2 C 80 % 986,7 hPa 0,0 l/m 0 min 0 min 114 W/m 22,5 km/h (4 Bft) 95,83 %
03.11.2023 11:26 11,0 C 10,6 C 7,2 C 80 % 986,6 hPa 0,0 l/m 0 min 0 min 104 W/m 22,5 km/h (4 Bft) 95,74 %
03.11.2023 11:28 11,0 C 10,6 C 7,2 C 80 % 986,7 hPa 0,0 l/m 0 min 0 min 105 W/m 32,2 km/h (5 Bft) 97,87 %
03.11.2023 11:30 11,1 C 10,6 C 7,2 C 80 % 986,7 hPa 0,0 l/m 0 min 0 min 105 W/m 38,6 km/h (5 Bft) 97,87 %
03.11.2023 11:32 11,1 C 10,6 C 7,2 C 80 % 986,7 hPa 0,0 l/m 0 min 0 min 114 W/m 41,8 km/h (6 Bft) 95,74 %
03.11.2023 11:34 11,1 C 10,6 C 7,2 C 80 % 986,7 hPa 0,0 l/m 0 min 0 min 95 W/m 38,6 km/h (5 Bft) 97,87 %
03.11.2023 11:36 11,1 C 10,6 C 7,2 C 80 % 986,6 hPa 0,0 l/m 0 min 0 min 83 W/m 29,0 km/h (5 Bft) 97,83 %
03.11.2023 11:38 11,1 C 10,6 C 7,2 C 80 % 986,6 hPa 0,0 l/m 0 min 0 min 90 W/m 32,2 km/h (5 Bft) 97,87 %
03.11.2023 11:40 11,1 C 10,6 C 7,2 C 80 % 986,6 hPa 0,0 l/m 0 min 0 min 131 W/m 35,4 km/h (5 Bft) 97,87 %
03.11.2023 11:42 11,1 C 11,1 C 7,2 C 80 % 986,6 hPa 0,0 l/m 0 min 0 min 157 W/m 35,4 km/h (5 Bft) 97,87 %
03.11.2023 11:44 11,2 C 11,1 C 7,2 C 80 % 986,6 hPa 0,0 l/m 0 min 0 min 155 W/m 29,0 km/h (5 Bft) 95,74 %
03.11.2023 11:46 11,2 C 11,1 C 7,2 C 80 % 986,6 hPa 0,0 l/m 0 min 0 min 130 W/m 29,0 km/h (5 Bft) 95,74 %
03.11.2023 11:48 11,3 C 11,1 C 7,2 C 80 % 986,6 hPa 0,0 l/m 0 min 0 min 126 W/m 29,0 km/h (5 Bft) 97,87 %
03.11.2023 11:50 11,3 C 11,1 C 7,2 C 79 % 986,6 hPa 0,0 l/m 0 min 0 min 130 W/m 35,4 km/h (5 Bft) 95,74 %
03.11.2023 11:52 11,3 C 11,1 C 7,2 C 79 % 986,6 hPa 0,0 l/m 0 min 0 min 136 W/m 25,7 km/h (4 Bft) 97,87 %
03.11.2023 11:54 11,3 C 11,1 C 7,2 C 79 % 986,5 hPa 0,0 l/m 0 min 0 min 124 W/m 35,4 km/h (5 Bft) 97,83 %
03.11.2023 11:56 11,3 C 11,1 C 7,2 C 79 % 986,4 hPa 0,0 l/m 0 min 0 min 119 W/m 38,6 km/h (5 Bft) 95,74 %
03.11.2023 11:58 11,3 C 11,1 C 7,2 C 79 % 986,5 hPa 0,0 l/m 0 min 0 min 152 W/m 35,4 km/h (5 Bft) 95,74 %
03.11.2023 12:00 11,4 C 11,1 C 7,2 C 79 % 986,5 hPa 0,0 l/m 0 min 0 min 176 W/m 45,1 km/h (6 Bft) 97,87 %
03.11.2023 12:02 11,4 C 11,1 C 7,2 C 79 % 986,4 hPa 0,0 l/m 0 min 0 min 173 W/m 41,8 km/h (6 Bft) 97,87 %
03.11.2023 12:04 11,4 C 11,1 C 7,2 C 78 % 986,6 hPa 0,0 l/m 0 min 0 min 161 W/m 38,6 km/h (5 Bft) 97,83 %
03.11.2023 12:08 11,6 C 11,7 C 7,8 C 79 % 986,6 hPa 0,0 l/m 0 min 0 min 130 W/m 38,6 km/h (5 Bft) 97,83 %
03.11.2023 12:10 11,6 C 11,7 C 7,8 C 78 % 986,6 hPa 0,0 l/m 0 min 0 min 98 W/m 19,3 km/h (3 Bft) 97,87 %
03.11.2023 12:12 11,7 C 11,7 C 7,8 C 79 % 986,7 hPa 0,0 l/m 0 min 0 min 105 W/m 16,1 km/h (3 Bft) 95,65 %
03.11.2023 12:16 11,7 C 11,7 C 7,8 C 78 % 986,8 hPa 0,0 l/m 0 min 0 min 97 W/m 51,5 km/h (7 Bft) 95,83 %
03.11.2023 12:18 11,8 C 11,7 C 7,8 C 78 % 986,7 hPa 0,0 l/m 0 min 0 min 98 W/m 38,6 km/h (5 Bft) 97,87 %
03.11.2023 12:20 11,8 C 11,7 C 7,8 C 77 % 986,6 hPa 0,0 l/m 0 min 0 min 81 W/m 35,4 km/h (5 Bft) 97,87 %
03.11.2023 12:22 11,8 C 11,7 C 7,8 C 77 % 986,6 hPa 0,0 l/m 0 min 0 min 76 W/m 32,2 km/h (5 Bft) 97,87 %
03.11.2023 12:24 11,8 C 11,7 C 7,8 C 77 % 986,6 hPa 0,0 l/m 0 min 0 min 71 W/m 19,3 km/h (3 Bft) 97,87 %
03.11.2023 12:26 11,9 C 11,7 C 7,8 C 77 % 986,6 hPa 0,0 l/m 0 min 0 min 67 W/m 35,4 km/h (5 Bft) 97,87 %
03.11.2023 12:28 11,9 C 11,7 C 7,8 C 77 % 986,6 hPa 0,0 l/m 0 min 0 min 88 W/m 22,5 km/h (4 Bft) 97,87 %
03.11.2023 12:30 11,9 C 11,7 C 7,8 C 77 % 986,6 hPa 0,0 l/m 0 min 0 min 100 W/m 29,0 km/h (5 Bft) 97,87 %
03.11.2023 12:32 11,9 C 11,7 C 7,8 C 77 % 986,6 hPa 0,0 l/m 0 min 0 min 102 W/m 29,0 km/h (5 Bft) 97,87 %
03.11.2023 12:34 11,9 C 11,7 C 7,8 C 77 % 986,7 hPa 0,0 l/m 0 min 0 min 117 W/m 22,5 km/h (4 Bft) 95,65 %
03.11.2023 12:36 11,9 C 11,7 C 7,8 C 77 % 986,7 hPa 0,0 l/m 0 min 0 min 114 W/m 22,5 km/h (4 Bft) 100,00 %
03.11.2023 12:38 11,9 C 11,7 C 7,8 C 77 % 986,7 hPa 0,0 l/m 0 min 0 min 125 W/m 16,1 km/h (3 Bft) 95,74 %
03.11.2023 12:40 12,0 C 12,2 C 7,8 C 77 % 986,8 hPa 0,0 l/m 0 min 0 min 159 W/m 22,5 km/h (4 Bft) 100,00 %
03.11.2023 12:42 12,0 C 12,2 C 7,8 C 77 % 986,8 hPa 0,0 l/m 0 min 0 min 177 W/m 41,8 km/h (6 Bft) 100,00 %
03.11.2023 12:44 12,1 C 12,2 C 7,8 C 78 % 986,9 hPa 0,0 l/m 0 min 0 min 166 W/m 19,3 km/h (3 Bft) 97,87 %
03.11.2023 12:46 12,0 C 12,2 C 7,8 C 77 % 986,9 hPa 0,0 l/m 2 min 0 min 207 W/m 29,0 km/h (5 Bft) 97,87 %
03.11.2023 12:48 12,0 C 11,7 C 7,8 C 76 % 986,8 hPa 0,0 l/m 0 min 0 min 182 W/m 54,7 km/h (7 Bft) 100,00 %
03.11.2023 12:50 11,9 C 11,7 C 7,8 C 76 % 986,9 hPa 0,0 l/m 0 min 0 min 125 W/m 25,7 km/h (4 Bft) 100,00 %
03.11.2023 12:52 11,9 C 11,7 C 7,8 C 76 % 986,9 hPa 0,0 l/m 0 min 0 min 114 W/m 29,0 km/h (5 Bft) 93,62 %
03.11.2023 12:54 11,9 C 11,7 C 7,8 C 76 % 987,0 hPa 0,0 l/m 0 min 0 min 126 W/m 57,9 km/h (7 Bft) 95,65 %
03.11.2023 12:56 11,8 C 11,1 C 7,8 C 76 % 987,0 hPa 0,0 l/m 0 min 0 min 106 W/m 29,0 km/h (5 Bft) 97,87 %
03.11.2023 12:58 11,8 C 11,1 C 7,2 C 77 % 987,0 hPa 0,0 l/m 0 min 0 min 118 W/m 19,3 km/h (3 Bft) 93,62 %
03.11.2023 13:00 11,7 C 11,1 C 7,2 C 77 % 987,1 hPa 0,0 l/m 0 min 0 min 136 W/m 25,7 km/h (4 Bft) 95,74 %
03.11.2023 13:02 11,7 C 11,1 C 7,2 C 76 % 987,1 hPa 0,0 l/m 0 min 0 min 120 W/m 35,4 km/h (5 Bft) 95,74 %
03.11.2023 13:04 11,6 C 11,1 C 7,2 C 77 % 987,0 hPa 0,0 l/m 0 min 0 min 174 W/m 22,5 km/h (4 Bft) 94,44 %
03.11.2023 13:06 11,6 C 11,1 C 7,2 C 77 % 987,1 hPa 0,0 l/m 0 min 0 min 182 W/m 32,2 km/h (5 Bft) 97,87 %
03.11.2023 13:08 11,6 C 11,7 C 7,2 C 78 % 987,0 hPa 0,0 l/m 0 min 0 min 152 W/m 22,5 km/h (4 Bft) 95,65 %
03.11.2023 13:10 11,6 C 11,7 C 7,2 C 78 % 987,1 hPa 0,0 l/m 0 min 0 min 141 W/m 25,7 km/h (4 Bft) 97,87 %
03.11.2023 13:12 11,6 C 11,7 C 7,2 C 78 % 987,0 hPa 0,0 l/m 0 min 0 min 133 W/m 19,3 km/h (3 Bft) 97,92 %
03.11.2023 13:14 11,5 C 11,7 C 7,2 C 77 % 987,0 hPa 0,0 l/m 0 min 0 min 163 W/m 32,2 km/h (5 Bft) 97,87 %
03.11.2023 13:16 11,5 C 11,7 C 7,2 C 77 % 987,0 hPa 0,0 l/m 0 min 2 min 159 W/m 35,4 km/h (5 Bft) 95,74 %
03.11.2023 13:18 11,5 C 11,7 C 7,2 C 78 % 987,0 hPa 0,0 l/m 0 min 2 min 170 W/m 22,5 km/h (4 Bft) 95,74 %
03.11.2023 13:20 11,6 C 11,7 C 7,2 C 78 % 987,0 hPa 0,0 l/m 0 min 0 min 161 W/m 25,7 km/h (4 Bft) 97,87 %
03.11.2023 13:22 11,5 C 11,7 C 7,2 C 78 % 987,0 hPa 0,0 l/m 0 min 0 min 135 W/m 25,7 km/h (4 Bft) 95,74 %
03.11.2023 13:24 11,4 C 11,1 C 7,2 C 77 % 987,0 hPa 0,0 l/m 0 min 0 min 160 W/m 25,7 km/h (4 Bft) 93,62 %
03.11.2023 13:26 11,4 C 11,7 C 7,2 C 77 % 987,0 hPa 0,0 l/m 2 min 0 min 192 W/m 25,7 km/h (4 Bft) 95,74 %
03.11.2023 13:28 11,5 C 11,7 C 7,2 C 77 % 987,1 hPa 0,0 l/m 2 min 0 min 190 W/m 19,3 km/h (3 Bft) 98,00 %
03.11.2023 13:30 11,6 C 11,7 C 7,2 C 77 % 987,1 hPa 0,0 l/m 0 min 0 min 149 W/m 25,7 km/h (4 Bft) 100,00 %
03.11.2023 13:32 11,6 C 11,7 C 7,2 C 77 % 987,1 hPa 0,0 l/m 0 min 0 min 119 W/m 25,7 km/h (4 Bft) 97,87 %
03.11.2023 13:34 11,5 C 11,1 C 7,2 C 77 % 987,1 hPa 0,0 l/m 0 min 0 min 118 W/m 41,8 km/h (6 Bft) 97,87 %
03.11.2023 13:36 11,5 C 11,1 C 7,2 C 77 % 987,1 hPa 0,0 l/m 0 min 0 min 157 W/m 19,3 km/h (3 Bft) 95,74 %
03.11.2023 13:38 11,5 C 11,1 C 7,2 C 77 % 987,2 hPa 0,0 l/m 0 min 0 min 115 W/m 45,1 km/h (6 Bft) 97,87 %
03.11.2023 13:40 11,4 C 11,1 C 7,2 C 77 % 987,2 hPa 0,0 l/m 0 min 0 min 90 W/m 25,7 km/h (4 Bft) 100,00 %
03.11.2023 13:42 11,4 C 11,1 C 7,2 C 77 % 987,2 hPa 0,0 l/m 0 min 0 min 102 W/m 41,8 km/h (6 Bft) 93,62 %
03.11.2023 13:44 11,4 C 11,1 C 7,2 C 77 % 987,2 hPa 0,0 l/m 0 min 0 min 120 W/m 48,3 km/h (6 Bft) 97,87 %
03.11.2023 13:46 11,3 C 11,1 C 7,2 C 77 % 987,2 hPa 0,0 l/m 0 min 0 min 117 W/m 22,5 km/h (4 Bft) 95,74 %
03.11.2023 13:48 11,3 C 11,1 C 7,2 C 78 % 987,2 hPa 0,0 l/m 0 min 0 min 120 W/m 29,0 km/h (5 Bft) 95,65 %
03.11.2023 13:50 11,3 C 11,1 C 7,2 C 78 % 987,2 hPa 0,0 l/m 0 min 0 min 124 W/m 12,9 km/h (3 Bft) 97,87 %
03.11.2023 13:52 11,4 C 11,1 C 7,2 C 78 % 987,2 hPa 0,0 l/m 0 min 0 min 131 W/m 22,5 km/h (4 Bft) 97,87 %
03.11.2023 13:54 11,4 C 11,1 C 7,2 C 78 % 987,2 hPa 0,0 l/m 0 min 0 min 143 W/m 12,9 km/h (3 Bft) 95,74 %
03.11.2023 13:56 11,4 C 11,7 C 7,2 C 78 % 987,1 hPa 0,0 l/m 0 min 0 min 149 W/m 12,9 km/h (3 Bft) 97,87 %
03.11.2023 13:58 11,4 C 11,1 C 7,2 C 78 % 987,1 hPa 0,0 l/m 0 min 0 min 135 W/m 16,1 km/h (3 Bft) 97,87 %
03.11.2023 14:00 11,4 C 11,1 C 7,2 C 78 % 987,1 hPa 0,0 l/m 0 min 0 min 120 W/m 22,5 km/h (4 Bft) 97,96 %
03.11.2023 14:02 11,4 C 11,1 C 7,2 C 78 % 987,2 hPa 0,0 l/m 0 min 0 min 131 W/m 16,1 km/h (3 Bft) 97,78 %
03.11.2023 14:04 11,4 C 11,1 C 7,2 C 77 % 987,2 hPa 0,0 l/m 0 min 0 min 162 W/m 25,7 km/h (4 Bft) 97,73 %
03.11.2023 14:10 11,4 C 11,7 C 7,2 C 78 % 987,1 hPa 0,0 l/m 5 min 0 min 252 W/m 32,2 km/h (5 Bft) 97,12 %
03.11.2023 14:12 11,5 C 11,7 C 7,2 C 78 % 987,2 hPa 0,0 l/m 2 min 0 min 333 W/m 41,8 km/h (6 Bft) 97,87 %
03.11.2023 14:14 11,6 C 11,7 C 7,2 C 78 % 987,2 hPa 0,0 l/m 2 min 0 min 286 W/m 16,1 km/h (3 Bft) 97,87 %
03.11.2023 14:16 11,6 C 11,7 C 7,2 C 77 % 987,2 hPa 0,0 l/m 2 min 0 min 206 W/m 19,3 km/h (3 Bft) 97,87 %
03.11.2023 14:18 11,6 C 11,7 C 7,2 C 77 % 987,3 hPa 0,0 l/m 2 min 0 min 322 W/m 22,5 km/h (4 Bft) 97,83 %
03.11.2023 14:20 11,7 C 11,7 C 7,2 C 77 % 987,3 hPa 0,0 l/m 2 min 0 min 255 W/m 32,2 km/h (5 Bft) 97,87 %
03.11.2023 14:22 11,7 C 11,7 C 7,2 C 77 % 987,3 hPa 0,0 l/m 2 min 0 min 269 W/m 22,5 km/h (4 Bft) 95,74 %
03.11.2023 14:24 11,8 C 11,7 C 7,2 C 77 % 987,3 hPa 0,0 l/m 2 min 0 min 221 W/m 16,1 km/h (3 Bft) 97,87 %
03.11.2023 14:26 11,8 C 11,7 C 7,2 C 77 % 987,3 hPa 0,0 l/m 2 min 0 min 265 W/m 22,5 km/h (4 Bft) 95,74 %
03.11.2023 14:28 11,8 C 11,7 C 7,2 C 76 % 987,4 hPa 0,0 l/m 2 min 0 min 288 W/m 38,6 km/h (5 Bft) 91,49 %
03.11.2023 14:30 11,8 C 11,7 C 7,2 C 76 % 987,3 hPa 0,0 l/m 2 min 0 min 276 W/m 25,7 km/h (4 Bft) 95,74 %
03.11.2023 14:32 11,8 C 11,7 C 7,2 C 76 % 987,4 hPa 0,0 l/m 2 min 0 min 210 W/m 9,7 km/h (2 Bft) 95,74 %
03.11.2023 14:34 11,9 C 11,7 C 7,8 C 76 % 987,4 hPa 0,0 l/m 2 min 0 min 170 W/m 19,3 km/h (3 Bft) 93,75 %
03.11.2023 14:36 11,9 C 11,7 C 7,8 C 75 % 987,4 hPa 0,0 l/m 2 min 0 min 264 W/m 16,1 km/h (3 Bft) 97,87 %
03.11.2023 14:38 11,9 C 11,7 C 7,8 C 75 % 987,4 hPa 0,0 l/m 2 min 0 min 195 W/m 12,9 km/h (3 Bft) 95,74 %
03.11.2023 14:40 11,9 C 11,7 C 7,8 C 75 % 987,5 hPa 0,0 l/m 2 min 0 min 188 W/m 19,3 km/h (3 Bft) 97,87 %
03.11.2023 14:42 11,9 C 11,7 C 7,2 C 75 % 987,5 hPa 0,0 l/m 0 min 0 min 86 W/m 32,2 km/h (5 Bft) 95,74 %
03.11.2023 14:44 11,8 C 11,7 C 7,2 C 75 % 987,5 hPa 0,0 l/m 0 min 0 min 99 W/m 16,1 km/h (3 Bft) 97,83 %
03.11.2023 14:46 11,8 C 11,7 C 7,2 C 75 % 987,6 hPa 0,0 l/m 2 min 0 min 185 W/m 22,5 km/h (4 Bft) 97,83 %
03.11.2023 14:48 11,9 C 11,7 C 7,2 C 75 % 987,6 hPa 0,0 l/m 2 min 0 min 252 W/m 22,5 km/h (4 Bft) 97,87 %
03.11.2023 14:50 11,9 C 11,7 C 7,8 C 75 % 987,5 hPa 0,0 l/m 2 min 0 min 278 W/m 12,9 km/h (3 Bft) 95,74 %
03.11.2023 14:52 11,9 C 11,7 C 7,8 C 75 % 987,6 hPa 0,0 l/m 2 min 0 min 257 W/m 25,7 km/h (4 Bft) 91,49 %
03.11.2023 14:54 11,9 C 11,7 C 7,8 C 74 % 987,6 hPa 0,0 l/m 2 min 0 min 172 W/m 12,9 km/h (3 Bft) 97,83 %
03.11.2023 14:56 12,0 C 11,7 C 7,8 C 75 % 987,6 hPa 0,0 l/m 0 min 0 min 119 W/m 19,3 km/h (3 Bft) 93,62 %
03.11.2023 14:58 12,0 C 11,7 C 7,8 C 75 % 987,6 hPa 0,0 l/m 0 min 0 min 87 W/m 29,0 km/h (5 Bft) 95,74 %
03.11.2023 15:00 12,0 C 11,7 C 7,8 C 74 % 987,6 hPa 0,0 l/m 2 min 0 min 139 W/m 12,9 km/h (3 Bft) 93,62 %
03.11.2023 15:02 12,0 C 11,7 C 7,8 C 74 % 987,6 hPa 0,0 l/m 2 min 0 min 140 W/m 19,3 km/h (3 Bft) 93,62 %
03.11.2023 15:04 12,1 C 11,7 C 7,8 C 74 % 987,7 hPa 0,0 l/m 0 min 0 min 75 W/m 25,7 km/h (4 Bft) 95,45 %
03.11.2023 15:10 11,9 C 11,7 C 7,8 C 73 % 987,7 hPa 0,0 l/m 0 min 0 min 89 W/m 35,4 km/h (5 Bft) 95,04 %
03.11.2023 15:12 11,9 C 11,1 C 7,2 C 73 % 987,8 hPa 0,0 l/m 0 min 0 min 100 W/m 19,3 km/h (3 Bft) 97,87 %
03.11.2023 15:14 11,9 C 11,1 C 7,2 C 73 % 988,0 hPa 0,0 l/m 0 min 0 min 73 W/m 54,7 km/h (7 Bft) 91,30 %
03.11.2023 15:16 11,8 C 11,1 C 7,2 C 72 % 987,9 hPa 0,0 l/m 0 min 0 min 59 W/m 19,3 km/h (3 Bft) 88,89 %
03.11.2023 15:18 11,8 C 11,1 C 7,2 C 73 % 987,9 hPa 0,0 l/m 0 min 0 min 49 W/m 32,2 km/h (5 Bft) 97,87 %
03.11.2023 15:20 11,7 C 11,1 C 7,2 C 73 % 988,0 hPa 0,0 l/m 0 min 0 min 48 W/m 29,0 km/h (5 Bft) 93,62 %
03.11.2023 15:22 11,6 C 10,6 C 7,2 C 73 % 988,0 hPa 0,0 l/m 0 min 0 min 61 W/m 19,3 km/h (3 Bft) 93,62 %
03.11.2023 15:24 11,5 C 10,6 C 7,2 C 73 % 988,0 hPa 0,0 l/m 0 min 0 min 64 W/m 29,0 km/h (5 Bft) 93,62 %
03.11.2023 15:26 11,4 C 10,6 C 7,2 C 73 % 988,1 hPa 0,0 l/m 0 min 0 min 60 W/m 38,6 km/h (5 Bft) 89,36 %
03.11.2023 15:28 11,4 C 10,6 C 7,2 C 73 % 988,1 hPa 0,0 l/m 0 min 0 min 50 W/m 25,7 km/h (4 Bft) 95,74 %
03.11.2023 15:30 11,3 C 10,6 C 6,7 C 74 % 988,1 hPa 0,0 l/m 0 min 0 min 59 W/m 25,7 km/h (4 Bft) 89,13 %
03.11.2023 15:32 11,3 C 10,6 C 6,7 C 74 % 988,1 hPa 0,0 l/m 0 min 0 min 81 W/m 25,7 km/h (4 Bft) 89,36 %
03.11.2023 15:34 11,3 C 10,6 C 6,7 C 74 % 988,2 hPa 0,0 l/m 0 min 0 min 78 W/m 22,5 km/h (4 Bft) 100,00 %
03.11.2023 15:36 11,2 C 10,6 C 6,7 C 74 % 988,1 hPa 0,0 l/m 0 min 0 min 57 W/m 35,4 km/h (5 Bft) 97,87 %
03.11.2023 15:38 11,2 C 10,6 C 6,7 C 74 % 988,2 hPa 0,0 l/m 0 min 0 min 49 W/m 29,0 km/h (5 Bft) 93,62 %
03.11.2023 15:40 11,2 C 10,6 C 6,7 C 74 % 988,2 hPa 0,0 l/m 0 min 0 min 43 W/m 25,7 km/h (4 Bft) 97,87 %
03.11.2023 15:42 11,1 C 10,6 C 6,7 C 74 % 988,1 hPa 0,0 l/m 0 min 0 min 39 W/m 29,0 km/h (5 Bft) 97,87 %
03.11.2023 15:44 11,1 C 10,6 C 6,7 C 74 % 988,1 hPa 0,0 l/m 0 min 0 min 37 W/m 22,5 km/h (4 Bft) 95,74 %
03.11.2023 15:46 11,1 C 10,6 C 6,7 C 74 % 988,1 hPa 0,0 l/m 0 min 0 min 35 W/m 32,2 km/h (5 Bft) 93,62 %
03.11.2023 15:48 11,0 C 10,6 C 6,7 C 75 % 988,2 hPa 0,0 l/m 0 min 0 min 35 W/m 25,7 km/h (4 Bft) 100,00 %
03.11.2023 15:50 11,0 C 10,0 C 6,7 C 75 % 988,2 hPa 0,0 l/m 0 min 0 min 37 W/m 25,7 km/h (4 Bft) 100,00 %
03.11.2023 15:52 10,9 C 10,6 C 6,7 C 75 % 988,2 hPa 0,0 l/m 0 min 0 min 38 W/m 32,2 km/h (5 Bft) 93,62 %
03.11.2023 15:54 10,9 C 10,6 C 6,7 C 74 % 988,2 hPa 0,0 l/m 0 min 0 min 40 W/m 19,3 km/h (3 Bft) 89,36 %
03.11.2023 15:56 10,9 C 10,6 C 6,7 C 74 % 988,4 hPa 0,0 l/m 0 min 0 min 41 W/m 45,1 km/h (6 Bft) 97,87 %
03.11.2023 15:58 10,9 C 10,6 C 6,7 C 74 % 988,2 hPa 0,0 l/m 0 min 0 min 45 W/m 29,0 km/h (5 Bft) 97,67 %
03.11.2023 16:00 10,9 C 10,6 C 6,7 C 74 % 988,3 hPa 0,0 l/m 0 min 0 min 47 W/m 19,3 km/h (3 Bft) 93,62 %
03.11.2023 16:02 10,9 C 10,6 C 6,7 C 75 % 988,4 hPa 0,0 l/m 0 min 0 min 48 W/m 19,3 km/h (3 Bft) 100,00 %
03.11.2023 16:04 10,9 C 10,6 C 6,7 C 74 % 988,4 hPa 0,0 l/m 0 min 0 min 49 W/m 22,5 km/h (4 Bft) 92,31 %
03.11.2023 16:08 10,9 C 10,6 C 6,7 C 74 % 988,4 hPa 0,0 l/m 0 min 0 min 50 W/m 29,0 km/h (5 Bft) 92,86 %
03.11.2023 16:09 10,9 C 10,6 C 6,7 C 74 % 988,4 hPa 0,0 l/m 0 min 0 min 49 W/m 12,9 km/h (3 Bft) 91,67 %
03.11.2023 16:12 11,0 C 10,6 C 6,7 C 75 % 988,4 hPa 0,0 l/m 0 min 0 min 47 W/m 25,7 km/h (4 Bft) 58,33 %
03.11.2023 16:14 11,0 C 10,6 C 6,7 C 75 % 988,5 hPa 0,0 l/m 0 min 0 min 42 W/m 25,7 km/h (4 Bft) 97,87 %
03.11.2023 16:16 11,0 C 10,6 C 6,7 C 75 % 988,5 hPa 0,0 l/m 0 min 0 min 41 W/m 22,5 km/h (4 Bft) 95,92 %
03.11.2023 16:18 10,9 C 10,6 C 6,7 C 75 % 988,5 hPa 0,0 l/m 0 min 0 min 35 W/m 22,5 km/h (4 Bft) 95,74 %
03.11.2023 16:20 10,9 C 10,6 C 6,7 C 75 % 988,5 hPa 0,0 l/m 0 min 0 min 32 W/m 19,3 km/h (3 Bft) 91,49 %
03.11.2023 16:22 10,9 C 10,0 C 6,7 C 75 % 988,4 hPa 0,0 l/m 0 min 0 min 29 W/m 25,7 km/h (4 Bft) 87,23 %
03.11.2023 16:24 10,9 C 10,0 C 6,7 C 75 % 988,5 hPa 0,0 l/m 0 min 0 min 27 W/m 45,1 km/h (6 Bft) 84,78 %
03.11.2023 16:26 10,9 C 10,0 C 6,7 C 75 % 988,6 hPa 0,0 l/m 0 min 0 min 26 W/m 29,0 km/h (5 Bft) 82,98 %
03.11.2023 16:28 10,9 C 10,0 C 6,7 C 75 % 988,6 hPa 0,0 l/m 0 min 0 min 24 W/m 22,5 km/h (4 Bft) 85,11 %
03.11.2023 16:30 10,8 C 10,0 C 6,7 C 75 % 988,6 hPa 0,0 l/m 0 min 0 min 22 W/m 19,3 km/h (3 Bft) 97,87 %
03.11.2023 16:32 10,8 C 10,0 C 6,7 C 75 % 988,6 hPa 0,0 l/m 0 min 0 min 19 W/m 22,5 km/h (4 Bft) 97,87 %
03.11.2023 16:34 10,8 C 10,0 C 6,7 C 75 % 988,7 hPa 0,0 l/m 0 min 0 min 16 W/m 22,5 km/h (4 Bft) 95,74 %
03.11.2023 16:36 10,8 C 10,0 C 6,1 C 75 % 988,7 hPa 0,0 l/m 0 min 0 min 12 W/m 6,4 km/h (2 Bft) 97,87 %
03.11.2023 16:38 10,7 C 10,0 C 6,1 C 76 % 988,7 hPa 0,0 l/m 0 min 0 min 14 W/m 9,7 km/h (2 Bft) 97,87 %
03.11.2023 16:40 10,7 C 10,0 C 6,1 C 76 % 988,7 hPa 0,0 l/m 0 min 0 min 18 W/m 32,2 km/h (5 Bft) 97,87 %
03.11.2023 16:42 10,7 C 10,0 C 6,1 C 76 % 988,7 hPa 0,0 l/m 0 min 0 min 16 W/m 19,3 km/h (3 Bft) 97,87 %
03.11.2023 16:44 10,6 C 9,4 C 6,1 C 76 % 988,7 hPa 0,0 l/m 0 min 0 min 14 W/m 25,7 km/h (4 Bft) 97,83 %
03.11.2023 16:46 10,6 C 9,4 C 6,1 C 76 % 988,7 hPa 0,0 l/m 0 min 0 min 12 W/m 12,9 km/h (3 Bft) 97,87 %
03.11.2023 16:48 10,6 C 9,4 C 6,1 C 77 % 988,6 hPa 0,0 l/m 0 min 0 min 11 W/m 19,3 km/h (3 Bft) 97,87 %
03.11.2023 16:50 10,5 C 9,4 C 6,1 C 77 % 988,7 hPa 0,0 l/m 0 min 0 min 10 W/m 19,3 km/h (3 Bft) 97,87 %
03.11.2023 16:52 10,4 C 9,4 C 6,1 C 77 % 988,7 hPa 0,0 l/m 0 min 0 min 7 W/m 19,3 km/h (3 Bft) 93,62 %
03.11.2023 16:54 10,4 C 9,4 C 6,1 C 77 % 988,7 hPa 0,0 l/m 0 min 0 min 7 W/m 12,9 km/h (3 Bft) 95,74 %
03.11.2023 16:56 10,4 C 9,4 C 6,1 C 77 % 988,7 hPa 0,0 l/m 0 min 0 min 7 W/m 29,0 km/h (5 Bft) 97,96 %
03.11.2023 16:58 10,3 C 9,4 C 6,1 C 77 % 988,6 hPa 0,0 l/m 0 min 0 min 7 W/m 19,3 km/h (3 Bft) 95,65 %
03.11.2023 17:00 10,3 C 9,4 C 6,1 C 77 % 988,7 hPa 0,0 l/m 0 min 0 min 5 W/m 22,5 km/h (4 Bft) 95,74 %
03.11.2023 17:02 10,3 C 9,4 C 6,1 C 77 % 988,7 hPa 0,0 l/m 0 min 0 min 5 W/m 22,5 km/h (4 Bft) 95,74 %
03.11.2023 17:04 10,2 C 9,4 C 6,1 C 77 % 988,7 hPa 0,0 l/m 0 min 0 min 2 W/m 19,3 km/h (3 Bft) 97,73 %
03.11.2023 17:10 10,2 C 9,4 C 5,6 C 77 % 988,6 hPa 0,0 l/m 0 min 0 min 0 W/m 29,0 km/h (5 Bft) 96,62 %
03.11.2023 17:12 10,1 C 9,4 C 5,6 C 78 % 988,6 hPa 0,0 l/m 0 min 0 min 0 W/m 19,3 km/h (3 Bft) 97,87 %
03.11.2023 17:14 10,1 C 9,4 C 5,6 C 78 % 988,6 hPa 0,0 l/m 0 min 0 min 0 W/m 22,5 km/h (4 Bft) 95,65 %
03.11.2023 17:16 10,1 C 9,4 C 5,6 C 78 % 988,6 hPa 0,0 l/m 0 min 0 min 0 W/m 16,1 km/h (3 Bft) 93,62 %
03.11.2023 17:18 10,1 C 8,9 C 5,6 C 78 % 988,6 hPa 0,0 l/m 0 min 0 min 0 W/m 12,9 km/h (3 Bft) 95,74 %
03.11.2023 17:20 10,0 C 8,9 C 5,6 C 78 % 988,6 hPa 0,0 l/m 0 min 0 min 0 W/m 22,5 km/h (4 Bft) 95,74 %
03.11.2023 17:22 9,9 C 8,9 C 5,6 C 78 % 988,6 hPa 0,0 l/m 0 min 0 min 0 W/m 16,1 km/h (3 Bft) 97,87 %
03.11.2023 17:24 9,9 C 8,9 C 5,6 C 78 % 988,7 hPa 0,0 l/m 0 min 0 min 0 W/m 6,4 km/h (2 Bft) 95,74 %
03.11.2023 17:26 9,9 C 8,9 C 5,6 C 78 % 988,7 hPa 0,0 l/m 0 min 0 min 0 W/m 22,5 km/h (4 Bft) 97,87 %
03.11.2023 17:28 9,8 C 8,9 C 5,6 C 78 % 988,7 hPa 0,0 l/m 0 min 0 min 0 W/m 16,1 km/h (3 Bft) 95,74 %
03.11.2023 17:30 9,8 C 8,9 C 5,6 C 79 % 988,8 hPa 0,0 l/m 0 min 0 min 0 W/m 19,3 km/h (3 Bft) 97,87 %
03.11.2023 17:32 9,8 C 8,9 C 5,6 C 79 % 988,7 hPa 0,0 l/m 0 min 0 min 0 W/m 12,9 km/h (3 Bft) 95,65 %
03.11.2023 17:34 9,7 C 8,9 C 5,6 C 79 % 988,8 hPa 0,0 l/m 0 min 0 min 0 W/m 19,3 km/h (3 Bft) 97,22 %
03.11.2023 17:36 9,7 C 8,9 C 5,6 C 79 % 988,8 hPa 0,0 l/m 0 min 0 min 0 W/m 12,9 km/h (3 Bft) 97,87 %
03.11.2023 17:38 9,7 C 8,9 C 5,6 C 79 % 988,8 hPa 0,0 l/m 0 min 0 min 0 W/m 22,5 km/h (4 Bft) 100,00 %
03.11.2023 17:40 9,7 C 8,9 C 5,6 C 79 % 988,8 hPa 0,0 l/m 0 min 0 min 0 W/m 16,1 km/h (3 Bft) 97,87 %
03.11.2023 17:42 9,6 C 8,9 C 5,6 C 79 % 988,9 hPa 0,0 l/m 0 min 0 min 0 W/m 25,7 km/h (4 Bft) 97,87 %
03.11.2023 17:44 9,6 C 8,9 C 5,6 C 79 % 988,9 hPa 0,0 l/m 0 min 0 min 0 W/m 19,3 km/h (3 Bft) 97,87 %
03.11.2023 17:46 9,6 C 8,9 C 5,6 C 79 % 988,8 hPa 0,0 l/m 0 min 0 min 0 W/m 16,1 km/h (3 Bft) 93,62 %
03.11.2023 17:48 9,6 C 8,9 C 5,6 C 79 % 988,9 hPa 0,0 l/m 0 min 0 min 0 W/m 19,3 km/h (3 Bft) 97,87 %
03.11.2023 17:50 9,6 C 8,3 C 5,6 C 79 % 988,9 hPa 0,0 l/m 0 min 0 min 0 W/m 9,7 km/h (2 Bft) 97,87 %
03.11.2023 17:52 9,6 C 8,3 C 5,0 C 79 % 988,9 hPa 0,0 l/m 0 min 0 min 0 W/m 16,1 km/h (3 Bft) 97,87 %
03.11.2023 17:54 9,5 C 8,3 C 5,0 C 79 % 988,9 hPa 0,0 l/m 0 min 0 min 0 W/m 16,1 km/h (3 Bft) 97,92 %
03.11.2023 17:56 9,5 C 8,3 C 5,0 C 79 % 989,0 hPa 0,0 l/m 0 min 0 min 0 W/m 12,9 km/h (3 Bft) 97,83 %
03.11.2023 17:58 9,4 C 8,3 C 5,0 C 80 % 989,0 hPa 0,0 l/m 0 min 0 min 0 W/m 6,4 km/h (2 Bft) 56,52 %
03.11.2023 18:00 9,4 C 8,3 C 5,0 C 79 % 989,0 hPa 0,0 l/m 0 min 0 min 0 W/m 16,1 km/h (3 Bft) 98,00 %
03.11.2023 18:02 9,4 C 8,3 C 5,0 C 79 % 989,0 hPa 0,0 l/m 0 min 0 min 0 W/m 12,9 km/h (3 Bft) 95,74 %
03.11.2023 18:04 9,4 C 8,3 C 5,0 C 80 % 989,0 hPa 0,0 l/m 0 min 0 min 0 W/m 9,7 km/h (2 Bft) 97,87 %
03.11.2023 18:08 9,3 C 8,3 C 5,0 C 80 % 989,0 hPa 0,0 l/m 0 min 0 min 0 W/m 9,7 km/h (2 Bft) 98,85 %
03.11.2023 18:10 9,3 C 8,3 C 5,0 C 80 % 989,0 hPa 0,0 l/m 0 min 0 min 0 W/m 6,4 km/h (2 Bft) 100,00 %
03.11.2023 18:12 9,3 C 8,3 C 5,0 C 80 % 989,0 hPa 0,0 l/m 0 min 0 min 0 W/m 6,4 km/h (2 Bft) 100,00 %
03.11.2023 18:16 9,2 C 8,3 C 5,0 C 80 % 989,1 hPa 0,0 l/m 0 min 0 min 0 W/m 12,9 km/h (3 Bft) 97,87 %
03.11.2023 18:18 9,2 C 8,3 C 5,0 C 80 % 989,1 hPa 0,0 l/m 0 min 0 min 0 W/m 12,9 km/h (3 Bft) 97,87 %
03.11.2023 18:20 9,2 C 8,3 C 5,0 C 80 % 989,1 hPa 0,0 l/m 0 min 0 min 0 W/m 12,9 km/h (3 Bft) 100,00 %
03.11.2023 18:22 9,2 C 8,3 C 5,0 C 80 % 989,0 hPa 0,0 l/m 0 min 0 min 0 W/m 19,3 km/h (3 Bft) 100,00 %
03.11.2023 18:24 9,1 C 8,3 C 5,0 C 81 % 989,0 hPa 0,0 l/m 0 min 0 min 0 W/m 29,0 km/h (5 Bft) 97,87 %
03.11.2023 18:26 9,1 C 8,3 C 5,0 C 81 % 989,0 hPa 0,0 l/m 0 min 0 min 0 W/m 16,1 km/h (3 Bft) 100,00 %
03.11.2023 18:28 9,1 C 8,3 C 5,0 C 81 % 989,0 hPa 0,0 l/m 0 min 0 min 0 W/m 9,7 km/h (2 Bft) 97,87 %
03.11.2023 18:30 9,1 C 8,3 C 5,0 C 81 % 989,1 hPa 0,0 l/m 0 min 0 min 0 W/m 12,9 km/h (3 Bft) 100,00 %
03.11.2023 18:32 9,1 C 8,3 C 5,0 C 81 % 989,0 hPa 0,0 l/m 0 min 0 min 0 W/m 16,1 km/h (3 Bft) 97,87 %
03.11.2023 18:34 9,1 C 7,8 C 5,0 C 81 % 989,1 hPa 0,0 l/m 0 min 0 min 0 W/m 9,7 km/h (2 Bft) 97,87 %
03.11.2023 18:36 9,0 C 7,8 C 5,0 C 81 % 989,1 hPa 0,0 l/m 0 min 0 min 0 W/m 12,9 km/h (3 Bft) 95,74 %
03.11.2023 18:38 9,0 C 7,8 C 5,0 C 81 % 989,1 hPa 0,0 l/m 0 min 0 min 0 W/m 19,3 km/h (3 Bft) 95,74 %
03.11.2023 18:40 8,9 C 7,8 C 5,0 C 81 % 989,1 hPa 0,0 l/m 0 min 0 min 0 W/m 9,7 km/h (2 Bft) 93,62 %
03.11.2023 18:42 8,9 C 7,8 C 5,0 C 81 % 989,1 hPa 0,0 l/m 0 min 0 min 0 W/m 19,3 km/h (3 Bft) 95,74 %
03.11.2023 18:44 8,9 C 7,8 C 5,0 C 81 % 989,1 hPa 0,0 l/m 0 min 0 min 0 W/m 9,7 km/h (2 Bft) 95,65 %
03.11.2023 18:46 8,9 C 7,8 C 5,0 C 81 % 989,0 hPa 0,0 l/m 0 min 0 min 0 W/m 16,1 km/h (3 Bft) 93,62 %
03.11.2023 18:48 8,9 C 7,8 C 5,0 C 82 % 989,1 hPa 0,0 l/m 0 min 0 min 0 W/m 22,5 km/h (4 Bft) 95,74 %
03.11.2023 18:50 8,9 C 7,8 C 5,0 C 82 % 989,1 hPa 0,0 l/m 0 min 0 min 0 W/m 16,1 km/h (3 Bft) 95,74 %
03.11.2023 18:52 8,9 C 7,8 C 5,0 C 82 % 989,1 hPa 0,0 l/m 0 min 0 min 0 W/m 19,3 km/h (3 Bft) 95,74 %
03.11.2023 18:54 8,8 C 7,8 C 5,0 C 82 % 989,1 hPa 0,0 l/m 0 min 0 min 0 W/m 25,7 km/h (4 Bft) 93,62 %
03.11.2023 18:56 8,8 C 7,8 C 5,0 C 82 % 989,2 hPa 0,0 l/m 0 min 0 min 0 W/m 19,3 km/h (3 Bft) 93,62 %
03.11.2023 18:58 8,8 C 8,3 C 5,0 C 82 % 989,2 hPa 0,0 l/m 0 min 0 min 0 W/m 25,7 km/h (4 Bft) 95,74 %
03.11.2023 19:00 8,8 C 7,8 C 5,0 C 82 % 989,3 hPa 0,0 l/m 0 min 0 min 0 W/m 22,5 km/h (4 Bft) 95,74 %
03.11.2023 19:02 8,8 C 7,8 C 5,0 C 82 % 989,2 hPa 0,0 l/m 0 min 0 min 0 W/m 6,4 km/h (2 Bft) 93,48 %
03.11.2023 19:04 8,8 C 7,8 C 5,0 C 82 % 989,3 hPa 0,0 l/m 0 min 0 min 0 W/m 6,4 km/h (2 Bft) 94,34 %
03.11.2023 19:06 8,8 C 7,8 C 5,0 C 82 % 989,3 hPa 0,0 l/m 0 min 0 min 0 W/m 6,4 km/h (2 Bft) 93,48 %
03.11.2023 19:08 8,8 C 7,8 C 4,4 C 82 % 989,2 hPa 0,0 l/m 0 min 0 min 0 W/m 3,2 km/h (1 Bft) 95,74 %
03.11.2023 19:10 8,8 C 7,8 C 4,4 C 82 % 989,3 hPa 0,0 l/m 0 min 0 min 0 W/m 6,4 km/h (2 Bft) 97,87 %
03.11.2023 19:12 8,8 C 7,8 C 4,4 C 82 % 989,3 hPa 0,0 l/m 0 min 0 min 0 W/m 9,7 km/h (2 Bft) 100,00 %
03.11.2023 19:14 8,7 C 7,8 C 4,4 C 82 % 989,3 hPa 0,0 l/m 0 min 0 min 0 W/m 3,2 km/h (1 Bft) 100,00 %
03.11.2023 19:16 8,7 C 7,8 C 4,4 C 82 % 989,3 hPa 0,0 l/m 0 min 0 min 0 W/m 6,4 km/h (2 Bft) 100,00 %
03.11.2023 19:18 8,6 C 7,8 C 4,4 C 83 % 989,3 hPa 0,0 l/m 0 min 0 min 0 W/m 16,1 km/h (3 Bft) 100,00 %
03.11.2023 19:20 8,6 C 7,8 C 4,4 C 83 % 989,3 hPa 0,0 l/m 0 min 0 min 0 W/m 9,7 km/h (2 Bft) 100,00 %
03.11.2023 19:22 8,6 C 7,8 C 4,4 C 83 % 989,4 hPa 0,0 l/m 0 min 0 min 0 W/m 12,9 km/h (3 Bft) 100,00 %
03.11.2023 19:24 8,6 C 7,8 C 4,4 C 83 % 989,4 hPa 0,0 l/m 0 min 0 min 0 W/m 16,1 km/h (3 Bft) 100,00 %
03.11.2023 19:26 8,5 C 7,8 C 4,4 C 83 % 989,3 hPa 0,0 l/m 0 min 0 min 0 W/m 12,9 km/h (3 Bft) 100,00 %
03.11.2023 19:28 8,5 C 7,8 C 4,4 C 83 % 989,4 hPa 0,0 l/m 0 min 0 min 0 W/m 16,1 km/h (3 Bft) 100,00 %
03.11.2023 19:30 8,4 C 7,8 C 4,4 C 83 % 989,4 hPa 0,0 l/m 0 min 0 min 0 W/m 9,7 km/h (2 Bft) 100,00 %
03.11.2023 19:32 8,4 C 7,2 C 4,4 C 83 % 989,4 hPa 0,0 l/m 0 min 0 min 0 W/m 9,7 km/h (2 Bft) 100,00 %
03.11.2023 19:34 8,4 C 7,2 C 4,4 C 83 % 989,4 hPa 0,0 l/m 0 min 0 min 0 W/m 19,3 km/h (3 Bft) 100,00 %
03.11.2023 19:36 8,4 C 7,2 C 4,4 C 84 % 989,4 hPa 0,0 l/m 0 min 0 min 0 W/m 16,1 km/h (3 Bft) 100,00 %
03.11.2023 19:38 8,4 C 7,8 C 4,4 C 84 % 989,4 hPa 0,0 l/m 0 min 0 min 0 W/m 19,3 km/h (3 Bft) 100,00 %
03.11.2023 19:40 8,4 C 7,8 C 4,4 C 84 % 989,3 hPa 0,0 l/m 0 min 0 min 0 W/m 19,3 km/h (3 Bft) 100,00 %
03.11.2023 19:42 8,4 C 7,8 C 4,4 C 84 % 989,4 hPa 0,0 l/m 0 min 0 min 0 W/m 9,7 km/h (2 Bft) 100,00 %
03.11.2023 19:44 8,4 C 7,8 C 4,4 C 84 % 989,4 hPa 0,0 l/m 0 min 0 min 0 W/m 12,9 km/h (3 Bft) 100,00 %
03.11.2023 19:46 8,4 C 7,8 C 4,4 C 84 % 989,4 hPa 0,0 l/m 0 min 0 min 0 W/m 12,9 km/h (3 Bft) 100,00 %
03.11.2023 19:48 8,4 C 7,8 C 4,4 C 84 % 989,4 hPa 0,0 l/m 0 min 0 min 0 W/m 6,4 km/h (2 Bft) 100,00 %
03.11.2023 19:50 8,4 C 7,8 C 4,4 C 84 % 989,4 hPa 0,0 l/m 0 min 0 min 0 W/m 16,1 km/h (3 Bft) 100,00 %
03.11.2023 19:52 8,4 C 7,8 C 4,4 C 84 % 989,4 hPa 0,0 l/m 0 min 0 min 0 W/m 12,9 km/h (3 Bft) 100,00 %
03.11.2023 19:54 8,4 C 7,8 C 4,4 C 84 % 989,5 hPa 0,0 l/m 0 min 0 min 0 W/m 16,1 km/h (3 Bft) 100,00 %
03.11.2023 19:56 8,5 C 7,8 C 4,4 C 84 % 989,5 hPa 0,0 l/m 0 min 0 min 0 W/m 16,1 km/h (3 Bft) 100,00 %
03.11.2023 19:58 8,5 C 7,8 C 4,4 C 84 % 989,5 hPa 0,0 l/m 0 min 0 min 0 W/m 12,9 km/h (3 Bft) 97,83 %
03.11.2023 20:00 8,6 C 7,8 C 4,4 C 84 % 989,5 hPa 0,0 l/m 0 min 0 min 0 W/m 12,9 km/h (3 Bft) 100,00 %
03.11.2023 20:02 8,6 C 7,8 C 4,4 C 84 % 989,4 hPa 0,0 l/m 0 min 0 min 0 W/m 12,9 km/h (3 Bft) 100,00 %
03.11.2023 20:04 8,6 C 7,8 C 4,4 C 84 % 989,4 hPa 0,0 l/m 0 min 0 min 0 W/m 12,9 km/h (3 Bft) 100,00 %
03.11.2023 20:06 8,6 C 7,8 C 5,0 C 84 % 989,3 hPa 0,0 l/m 0 min 0 min 0 W/m 12,9 km/h (3 Bft) 100,00 %
03.11.2023 20:08 8,6 C 8,3 C 5,0 C 84 % 989,3 hPa 0,0 l/m 0 min 0 min 0 W/m 22,5 km/h (4 Bft) 100,00 %
03.11.2023 20:10 8,6 C 8,3 C 5,0 C 84 % 989,3 hPa 0,0 l/m 0 min 0 min 0 W/m 9,7 km/h (2 Bft) 97,87 %
03.11.2023 20:12 8,7 C 8,3 C 5,0 C 84 % 989,3 hPa 0,0 l/m 0 min 0 min 0 W/m 19,3 km/h (3 Bft) 97,87 %
03.11.2023 20:14 8,7 C 8,3 C 5,0 C 83 % 989,3 hPa 0,0 l/m 0 min 0 min 0 W/m 19,3 km/h (3 Bft) 100,00 %
03.11.2023 20:16 8,7 C 8,3 C 5,0 C 83 % 989,3 hPa 0,0 l/m 0 min 0 min 0 W/m 12,9 km/h (3 Bft) 100,00 %
03.11.2023 20:18 8,7 C 8,3 C 5,0 C 83 % 989,2 hPa 0,0 l/m 0 min 0 min 0 W/m 12,9 km/h (3 Bft) 95,74 %
03.11.2023 20:20 8,8 C 8,3 C 5,0 C 83 % 989,3 hPa 0,0 l/m 0 min 0 min 0 W/m 12,9 km/h (3 Bft) 100,00 %
03.11.2023 20:22 8,8 C 8,3 C 5,0 C 83 % 989,3 hPa 0,0 l/m 0 min 0 min 0 W/m 25,7 km/h (4 Bft) 100,00 %
03.11.2023 20:24 8,8 C 8,3 C 5,0 C 82 % 989,3 hPa 0,0 l/m 0 min 0 min 0 W/m 12,9 km/h (3 Bft) 97,87 %
03.11.2023 20:26 8,8 C 8,3 C 5,0 C 82 % 989,3 hPa 0,0 l/m 0 min 0 min 0 W/m 19,3 km/h (3 Bft) 95,74 %
03.11.2023 20:28 8,8 C 8,3 C 5,0 C 82 % 989,4 hPa 0,0 l/m 0 min 0 min 0 W/m 19,3 km/h (3 Bft) 93,62 %
03.11.2023 20:30 8,8 C 8,3 C 5,0 C 82 % 989,4 hPa 0,0 l/m 0 min 0 min 0 W/m 19,3 km/h (3 Bft) 93,62 %
03.11.2023 20:32 8,8 C 8,3 C 5,0 C 82 % 989,4 hPa 0,0 l/m 0 min 0 min 0 W/m 22,5 km/h (4 Bft) 97,83 %
03.11.2023 20:34 8,9 C 8,3 C 5,0 C 81 % 989,4 hPa 0,0 l/m 0 min 0 min 0 W/m 25,7 km/h (4 Bft) 95,74 %
03.11.2023 20:36 8,9 C 8,3 C 5,0 C 81 % 989,4 hPa 0,0 l/m 0 min 0 min 0 W/m 19,3 km/h (3 Bft) 91,49 %
03.11.2023 20:38 8,9 C 8,3 C 5,0 C 81 % 989,4 hPa 0,0 l/m 0 min 0 min 0 W/m 19,3 km/h (3 Bft) 93,62 %
03.11.2023 20:40 8,9 C 8,3 C 5,0 C 81 % 989,5 hPa 0,0 l/m 0 min 0 min 0 W/m 22,5 km/h (4 Bft) 91,49 %
03.11.2023 20:42 9,0 C 8,3 C 5,0 C 81 % 989,4 hPa 0,0 l/m 0 min 0 min 0 W/m 32,2 km/h (5 Bft) 95,74 %
03.11.2023 20:44 9,1 C 8,3 C 5,0 C 80 % 989,5 hPa 0,0 l/m 0 min 0 min 0 W/m 25,7 km/h (4 Bft) 95,74 %
03.11.2023 20:46 9,1 C 8,3 C 5,0 C 80 % 989,5 hPa 0,0 l/m 0 min 0 min 0 W/m 29,0 km/h (5 Bft) 93,62 %
03.11.2023 20:48 9,1 C 8,3 C 5,0 C 80 % 989,4 hPa 0,0 l/m 0 min 0 min 0 W/m 16,1 km/h (3 Bft) 95,74 %
03.11.2023 20:50 9,1 C 8,3 C 5,0 C 80 % 989,5 hPa 0,0 l/m 0 min 0 min 0 W/m 32,2 km/h (5 Bft) 91,30 %
03.11.2023 20:52 9,1 C 8,3 C 5,0 C 80 % 989,5 hPa 0,0 l/m 0 min 0 min 0 W/m 25,7 km/h (4 Bft) 91,49 %
03.11.2023 20:54 9,2 C 8,3 C 5,0 C 80 % 989,5 hPa 0,0 l/m 0 min 0 min 0 W/m 22,5 km/h (4 Bft) 95,74 %
03.11.2023 20:56 9,2 C 8,3 C 5,0 C 80 % 989,5 hPa 0,0 l/m 0 min 0 min 0 W/m 16,1 km/h (3 Bft) 93,62 %
03.11.2023 20:58 9,2 C 8,3 C 5,0 C 80 % 989,6 hPa 0,0 l/m 0 min 0 min 0 W/m 19,3 km/h (3 Bft) 97,87 %
03.11.2023 21:00 9,2 C 8,3 C 5,0 C 80 % 989,5 hPa 0,0 l/m 0 min 0 min 0 W/m 22,5 km/h (4 Bft) 97,87 %
03.11.2023 21:02 9,2 C 8,3 C 5,0 C 80 % 989,5 hPa 0,0 l/m 0 min 0 min 0 W/m 29,0 km/h (5 Bft) 95,92 %
03.11.2023 21:04 9,2 C 8,3 C 5,0 C 80 % 989,5 hPa 0,0 l/m 0 min 0 min 0 W/m 25,7 km/h (4 Bft) 95,92 %
03.11.2023 21:10 9,2 C 8,3 C 5,0 C 80 % 989,5 hPa 0,0 l/m 0 min 0 min 0 W/m 25,7 km/h (4 Bft) 95,42 %
03.11.2023 21:12 9,2 C 8,3 C 5,0 C 80 % 989,5 hPa 0,0 l/m 0 min 0 min 0 W/m 22,5 km/h (4 Bft) 93,62 %
03.11.2023 21:14 9,2 C 8,3 C 5,0 C 80 % 989,5 hPa 0,0 l/m 0 min 0 min 0 W/m 16,1 km/h (3 Bft) 93,62 %
03.11.2023 21:16 9,2 C 8,3 C 5,0 C 80 % 989,5 hPa 0,0 l/m 0 min 0 min 0 W/m 25,7 km/h (4 Bft) 95,74 %
03.11.2023 21:18 9,2 C 8,3 C 5,0 C 80 % 989,5 hPa 0,0 l/m 0 min 0 min 0 W/m 25,7 km/h (4 Bft) 97,83 %
03.11.2023 21:20 9,2 C 8,3 C 5,0 C 80 % 989,5 hPa 0,0 l/m 0 min 0 min 0 W/m 12,9 km/h (3 Bft) 95,74 %
03.11.2023 21:22 9,2 C 8,3 C 5,0 C 80 % 989,5 hPa 0,0 l/m 0 min 0 min 0 W/m 19,3 km/h (3 Bft) 95,74 %
03.11.2023 21:24 9,2 C 8,3 C 5,0 C 80 % 989,5 hPa 0,0 l/m 0 min 0 min 0 W/m 12,9 km/h (3 Bft) 95,74 %
03.11.2023 21:26 9,2 C 8,3 C 5,0 C 80 % 989,4 hPa 0,0 l/m 0 min 0 min 0 W/m 19,3 km/h (3 Bft) 95,74 %
03.11.2023 21:28 9,2 C 8,3 C 5,0 C 81 % 989,5 hPa 0,0 l/m 0 min 0 min 0 W/m 25,7 km/h (4 Bft) 97,87 %
03.11.2023 21:30 9,2 C 8,3 C 5,0 C 81 % 989,5 hPa 0,0 l/m 0 min 0 min 0 W/m 19,3 km/h (3 Bft) 97,87 %
03.11.2023 21:32 9,1 C 8,3 C 5,0 C 81 % 989,5 hPa 0,0 l/m 0 min 0 min 0 W/m 12,9 km/h (3 Bft) 97,87 %
03.11.2023 21:34 9,1 C 8,3 C 5,0 C 81 % 989,5 hPa 0,0 l/m 0 min 0 min 0 W/m 25,7 km/h (4 Bft) 100,00 %
03.11.2023 21:36 9,1 C 8,3 C 5,0 C 81 % 989,5 hPa 0,0 l/m 0 min 0 min 0 W/m 16,1 km/h (3 Bft) 100,00 %
03.11.2023 21:38 9,1 C 8,3 C 5,0 C 81 % 989,5 hPa 0,0 l/m 0 min 0 min 0 W/m 9,7 km/h (2 Bft) 97,87 %
03.11.2023 21:40 9,1 C 8,3 C 5,0 C 81 % 989,5 hPa 0,0 l/m 0 min 0 min 0 W/m 22,5 km/h (4 Bft) 97,87 %
03.11.2023 21:42 9,1 C 8,3 C 5,0 C 81 % 989,4 hPa 0,0 l/m 0 min 0 min 0 W/m 19,3 km/h (3 Bft) 97,87 %
03.11.2023 21:44 9,1 C 8,3 C 5,0 C 81 % 989,5 hPa 0,0 l/m 0 min 0 min 0 W/m 9,7 km/h (2 Bft) 100,00 %
03.11.2023 21:46 9,0 C 8,3 C 5,0 C 81 % 989,5 hPa 0,0 l/m 0 min 0 min 0 W/m 16,1 km/h (3 Bft) 95,74 %
03.11.2023 21:48 9,1 C 8,3 C 5,0 C 81 % 989,4 hPa 0,0 l/m 0 min 0 min 0 W/m 12,9 km/h (3 Bft) 97,87 %
03.11.2023 21:50 9,0 C 8,3 C 5,0 C 81 % 989,5 hPa 0,0 l/m 0 min 0 min 0 W/m 12,9 km/h (3 Bft) 100,00 %
03.11.2023 21:52 9,0 C 8,3 C 5,0 C 81 % 989,5 hPa 0,0 l/m 0 min 0 min 0 W/m 22,5 km/h (4 Bft) 93,62 %
03.11.2023 21:54 9,0 C 8,3 C 5,0 C 81 % 989,5 hPa 0,0 l/m 0 min 0 min 0 W/m 9,7 km/h (2 Bft) 97,83 %
03.11.2023 21:56 9,0 C 8,3 C 5,0 C 81 % 989,4 hPa 0,0 l/m 0 min 0 min 0 W/m 16,1 km/h (3 Bft) 97,87 %
03.11.2023 21:58 9,0 C 8,3 C 5,0 C 81 % 989,4 hPa 0,0 l/m 0 min 0 min 0 W/m 16,1 km/h (3 Bft) 100,00 %
03.11.2023 22:00 9,0 C 8,3 C 5,0 C 81 % 989,4 hPa 0,0 l/m 0 min 0 min 0 W/m 22,5 km/h (4 Bft) 100,00 %
03.11.2023 22:02 9,0 C 8,3 C 5,0 C 81 % 989,4 hPa 0,0 l/m 0 min 0 min 0 W/m 16,1 km/h (3 Bft) 95,74 %
03.11.2023 22:04 9,0 C 8,3 C 5,0 C 81 % 989,4 hPa 0,0 l/m 0 min 0 min 0 W/m 22,5 km/h (4 Bft) 100,00 %
03.11.2023 22:06 9,1 C 8,3 C 5,0 C 81 % 989,3 hPa 0,0 l/m 0 min 0 min 0 W/m 12,9 km/h (3 Bft) 97,83 %
03.11.2023 22:08 9,1 C 8,3 C 5,0 C 81 % 989,3 hPa 0,0 l/m 0 min 0 min 0 W/m 12,9 km/h (3 Bft) 95,74 %
03.11.2023 22:10 9,1 C 8,3 C 5,0 C 81 % 989,3 hPa 0,0 l/m 0 min 0 min 0 W/m 19,3 km/h (3 Bft) 97,87 %
03.11.2023 22:12 9,1 C 8,3 C 5,0 C 81 % 989,3 hPa 0,0 l/m 0 min 0 min 0 W/m 19,3 km/h (3 Bft) 97,87 %
03.11.2023 22:14 9,1 C 8,3 C 5,0 C 81 % 989,3 hPa 0,0 l/m 0 min 0 min 0 W/m 9,7 km/h (2 Bft) 97,87 %
03.11.2023 22:16 9,1 C 8,3 C 5,0 C 81 % 989,3 hPa 0,0 l/m 0 min 0 min 0 W/m 9,7 km/h (2 Bft) 97,87 %
03.11.2023 22:18 9,1 C 8,3 C 5,0 C 81 % 989,3 hPa 0,0 l/m 0 min 0 min 0 W/m 12,9 km/h (3 Bft) 95,74 %
03.11.2023 22:20 9,1 C 8,3 C 5,0 C 81 % 989,3 hPa 0,0 l/m 0 min 0 min 0 W/m 16,1 km/h (3 Bft) 95,74 %
03.11.2023 22:22 9,1 C 8,3 C 5,0 C 81 % 989,3 hPa 0,0 l/m 0 min 0 min 0 W/m 6,4 km/h (2 Bft) 95,74 %
03.11.2023 22:24 9,1 C 8,3 C 5,0 C 80 % 989,3 hPa 0,0 l/m 0 min 0 min 0 W/m 16,1 km/h (3 Bft) 97,87 %
03.11.2023 22:26 9,1 C 8,3 C 5,0 C 80 % 989,3 hPa 0,0 l/m 0 min 0 min 0 W/m 16,1 km/h (3 Bft) 93,62 %
03.11.2023 22:28 9,1 C 8,3 C 5,0 C 81 % 989,3 hPa 0,0 l/m 0 min 0 min 0 W/m 6,4 km/h (2 Bft) 97,83 %
03.11.2023 22:30 9,1 C 8,3 C 5,0 C 81 % 989,3 hPa 0,0 l/m 0 min 0 min 0 W/m 35,4 km/h (5 Bft) 97,87 %
03.11.2023 22:32 9,1 C 8,3 C 5,0 C 81 % 989,3 hPa 0,0 l/m 0 min 0 min 0 W/m 16,1 km/h (3 Bft) 95,74 %
03.11.2023 22:34 9,0 C 8,3 C 5,0 C 81 % 989,3 hPa 0,0 l/m 0 min 0 min 0 W/m 16,1 km/h (3 Bft) 97,87 %
03.11.2023 22:36 9,0 C 8,3 C 5,0 C 81 % 989,3 hPa 0,0 l/m 0 min 0 min 0 W/m 9,7 km/h (2 Bft) 97,87 %
03.11.2023 22:38 9,0 C 8,3 C 5,0 C 81 % 989,3 hPa 0,0 l/m 0 min 0 min 0 W/m 19,3 km/h (3 Bft) 95,74 %
03.11.2023 22:40 9,0 C 8,3 C 5,0 C 81 % 989,3 hPa 0,0 l/m 0 min 0 min 0 W/m 9,7 km/h (2 Bft) 95,74 %
03.11.2023 22:42 8,9 C 8,3 C 5,0 C 81 % 989,3 hPa 0,0 l/m 0 min 0 min 0 W/m 6,4 km/h (2 Bft) 97,87 %
03.11.2023 22:44 8,9 C 8,3 C 5,0 C 81 % 989,3 hPa 0,0 l/m 0 min 0 min 0 W/m 6,4 km/h (2 Bft) 95,74 %
03.11.2023 22:46 8,9 C 8,3 C 5,0 C 81 % 989,3 hPa 0,0 l/m 0 min 0 min 0 W/m 12,9 km/h (3 Bft) 100,00 %
03.11.2023 22:48 8,9 C 8,3 C 5,0 C 81 % 989,3 hPa 0,0 l/m 0 min 0 min 0 W/m 6,4 km/h (2 Bft) 100,00 %
03.11.2023 22:50 8,9 C 8,3 C 5,0 C 81 % 989,3 hPa 0,0 l/m 0 min 0 min 0 W/m 6,4 km/h (2 Bft) 97,83 %
03.11.2023 22:52 8,9 C 7,8 C 5,0 C 81 % 989,3 hPa 0,0 l/m 0 min 0 min 0 W/m 6,4 km/h (2 Bft) 100,00 %
03.11.2023 22:54 8,9 C 7,8 C 5,0 C 81 % 989,3 hPa 0,0 l/m 0 min 0 min 0 W/m 3,2 km/h (1 Bft) 100,00 %
03.11.2023 22:56 8,8 C 7,8 C 4,4 C 81 % 989,3 hPa 0,0 l/m 0 min 0 min 0 W/m 6,4 km/h (2 Bft) 97,87 %
03.11.2023 22:58 8,8 C 7,8 C 4,4 C 81 % 989,2 hPa 0,0 l/m 0 min 0 min 0 W/m 6,4 km/h (2 Bft) 100,00 %
03.11.2023 23:00 8,8 C 7,8 C 4,4 C 82 % 989,2 hPa 0,0 l/m 0 min 0 min 0 W/m 6,4 km/h (2 Bft) 100,00 %
03.11.2023 23:02 8,7 C 7,8 C 4,4 C 82 % 989,2 hPa 0,0 l/m 0 min 0 min 0 W/m 12,9 km/h (3 Bft) 95,74 %
03.11.2023 23:04 8,7 C 7,8 C 4,4 C 82 % 989,2 hPa 0,0 l/m 0 min 0 min 0 W/m 16,1 km/h (3 Bft) 98,04 %
03.11.2023 23:08 8,6 C 7,2 C 4,4 C 82 % 989,2 hPa 0,0 l/m 0 min 0 min 0 W/m 12,9 km/h (3 Bft) 100,00 %
03.11.2023 23:10 8,5 C 7,2 C 4,4 C 82 % 989,2 hPa 0,0 l/m 0 min 0 min 0 W/m 6,4 km/h (2 Bft) 100,00 %
03.11.2023 23:12 8,4 C 7,2 C 3,9 C 82 % 989,2 hPa 0,0 l/m 0 min 0 min 0 W/m 12,9 km/h (3 Bft) 97,87 %
03.11.2023 23:14 8,3 C 7,2 C 3,9 C 83 % 989,2 hPa 0,0 l/m 0 min 0 min 0 W/m 6,4 km/h (2 Bft) 100,00 %
03.11.2023 23:16 8,3 C 7,2 C 3,9 C 83 % 989,2 hPa 0,0 l/m 0 min 0 min 0 W/m 12,9 km/h (3 Bft) 100,00 %
03.11.2023 23:18 8,2 C 7,2 C 3,9 C 83 % 989,2 hPa 0,0 l/m 0 min 0 min 0 W/m 6,4 km/h (2 Bft) 97,87 %
03.11.2023 23:20 8,2 C 7,2 C 3,9 C 83 % 989,2 hPa 0,0 l/m 0 min 0 min 0 W/m 12,9 km/h (3 Bft) 95,74 %
03.11.2023 23:22 8,1 C 7,2 C 3,9 C 83 % 989,2 hPa 0,0 l/m 0 min 0 min 0 W/m 6,4 km/h (2 Bft) 97,83 %
03.11.2023 23:24 8,1 C 6,7 C 3,9 C 83 % 989,2 hPa 0,0 l/m 0 min 0 min 0 W/m 6,4 km/h (2 Bft) 100,00 %
03.11.2023 23:26 8,1 C 6,7 C 3,9 C 83 % 989,2 hPa 0,0 l/m 0 min 0 min 0 W/m 9,7 km/h (2 Bft) 97,87 %
03.11.2023 23:28 8,0 C 6,7 C 3,9 C 83 % 989,1 hPa 0,0 l/m 0 min 0 min 0 W/m 6,4 km/h (2 Bft) 97,87 %
03.11.2023 23:30 7,9 C 6,7 C 3,9 C 83 % 989,1 hPa 0,0 l/m 0 min 0 min 0 W/m 3,2 km/h (1 Bft) 95,74 %
03.11.2023 23:32 7,9 C 6,7 C 3,9 C 84 % 989,1 hPa 0,0 l/m 0 min 0 min 0 W/m 3,2 km/h (1 Bft) 95,74 %
03.11.2023 23:34 7,8 C 6,7 C 3,9 C 84 % 989,1 hPa 0,0 l/m 0 min 0 min 0 W/m 6,4 km/h (2 Bft) 93,62 %
03.11.2023 23:36 7,8 C 6,7 C 3,9 C 84 % 989,2 hPa 0,0 l/m 0 min 0 min 0 W/m 6,4 km/h (2 Bft) 93,62 %
03.11.2023 23:38 7,8 C 6,7 C 3,3 C 84 % 989,1 hPa 0,0 l/m 0 min 0 min 0 W/m 6,4 km/h (2 Bft) 95,74 %
03.11.2023 23:40 7,7 C 6,7 C 3,3 C 84 % 989,1 hPa 0,0 l/m 0 min 0 min 0 W/m 6,4 km/h (2 Bft) 93,62 %
03.11.2023 23:42 7,7 C 6,7 C 3,3 C 84 % 989,1 hPa 0,0 l/m 0 min 0 min 0 W/m 6,4 km/h (2 Bft) 95,65 %
03.11.2023 23:44 7,6 C 6,7 C 3,3 C 84 % 989,2 hPa 0,0 l/m 0 min 0 min 0 W/m 6,4 km/h (2 Bft) 93,62 %
03.11.2023 23:49 7,6 C 6,7 C 3,3 C 85 % 989,1 hPa 0,0 l/m 0 min 0 min 0 W/m 9,7 km/h (2 Bft) 94,74 %
03.11.2023 23:50 7,6 C 6,7 C 3,3 C 85 % 989,1 hPa 0,0 l/m 0 min 0 min 0 W/m 3,2 km/h (1 Bft) 95,83 %
03.11.2023 23:54 7,6 C 6,7 C 3,3 C 85 % 989,1 hPa 0,0 l/m 0 min 0 min 0 W/m 6,4 km/h (2 Bft) 95,71 %
03.11.2023 23:56 7,6 C 6,7 C 3,3 C 85 % 989,1 hPa 0,0 l/m 0 min 0 min 0 W/m 6,4 km/h (2 Bft) 92,86 %
03.11.2023 23:58 7,6 C 6,7 C 3,3 C 85 % 989,2 hPa 0,0 l/m 0 min 0 min 0 W/m 6,4 km/h (2 Bft) 97,87 %
_ Min-Zeit 23:44 23:24 23:38 15:16 00:00 - - - - 19:08 17:58
Minimum _ 7,6 C 6,7 C 3,3 C 72 % 980,7 hPa - - - - 3,2 km/h (1 Bft) 56,52 %
_ Max-Zeit 12:44 12:40 12:08 00:25 20:58 00:15 07:50 00:05 14:12 03:30 00:20
Maximum _ 12,1 C 12,2 C 7,8 C 89 % 989,6 hPa 0,2 l/m 5 min 5 min 333 W/m 61,2 km/h
S (7 Bft)
100,00 %
Durchschnitt _ 9,9 C 9,2 C 5,7 C 81 % 985,8 hPa #0,2 l/m #2:32 h #36 min. 103 W/m 26,1 km/h (4 Bft) 97,41 %
© 2023 W. Hausmann